EncompDEV
CodeWizard

Download Field Explorer Pro and search all Standard, Virtual, Custom and RDB Fields in your Encompass

Search Fields in containing Field Changes
Your Field Search History
Time Search Version Fields
11/14/2018 05:25 Date 18.4 1,407
Global Field Search History
Time Search Version Fields
11/14/2018 05:25 Date 18.4 1,407
11/14/2018 05:25 4009 18.4 2
11/14/2018 05:25 PREQUAL.X274 18.4 1
11/14/2018 05:25 VEND.X140 18.4 1
11/14/2018 05:25 4000 18.4 2
11/14/2018 05:25 436 18.4 33
11/14/2018 05:25 3968 18.4 1
11/14/2018 05:25 39 18.4 1,082
11/14/2018 05:25 NEWHUD2.X1269 18.4 1
11/14/2018 05:25 37 18.4 1,805
11/14/2018 05:25 organiz 18.4 49
11/14/2018 05:24 3658 18.4 2
11/14/2018 05:24 latefee 18.4 20
11/14/2018 05:24 denial.x62 18.4 1
11/14/2018 05:24 date r 18.4 1,315
11/14/2018 05:24 assign 18.4 93
11/14/2018 05:24 3657 18.4 2
11/14/2018 05:24 360 18.4 43
11/14/2018 05:24 amo 18.4 4,290
11/14/2018 05:24 342 18.4 47
11/14/2018 05:24 Borrower N 18.4 1,826
11/14/2018 05:24 HUD1 Borr 18.4 65
11/14/2018 05:24 3331 18.4 2
11/14/2018 05:24 3265 18.4 2
11/14/2018 05:24 es 18.4 14,856
11/14/2018 05:24 326 18.4 50
11/14/2018 05:24 itemization 18.4 108
11/14/2018 05:24 324 18.4 62
11/14/2018 05:24 servici 18.4 350
11/14/2018 05:24 737 18.4 32
11/14/2018 05:24 323 18.4 30
11/14/2018 05:24 GSEVENDOR.X24 18.4 1
11/14/2018 05:23 income verification 18.4 5
11/14/2018 05:23 3197 18.4 2
11/14/2018 05:23 907 18.4 77
11/14/2018 05:23 concession 18.4 113
11/14/2018 05:23 1205 18.4 47
11/14/2018 05:23 3192 18.4 2
11/14/2018 05:23 3170 18.4 2
11/14/2018 05:23 3166 18.4 3
11/14/2018 05:23 3164 18.4 3
11/14/2018 05:23 3152 18.4 2
11/14/2018 05:23 689 18.4 35
11/14/2018 05:23 3086 18.4 2
11/14/2018 05:23 300 18.4 130
11/14/2018 05:22 2998 18.4 2
11/14/2018 05:22 2997 18.4 2
11/14/2018 05:22 299 18.4 42
11/14/2018 05:22 2978 18.4 1
11/14/2018 05:22 HMDA.X11 18.4 4
11/14/2018 05:22 296 18.4 139
11/14/2018 05:22 981 18.4 11
11/14/2018 05:22 290 18.4 208
11/14/2018 05:22 2860 18.4 2
11/14/2018 05:22 2288 18.4 13
11/14/2018 05:22 indicator 18.4 681
11/14/2018 05:21 2827 18.4 2
11/14/2018 05:21 396 18.4 62
11/14/2018 05:21 2824 18.4 2
11/14/2018 05:21 Inte 18.4 588
11/14/2018 05:21 date of birth 18.4 2
11/14/2018 05:21 2553 18.4 1
11/14/2018 05:21 data template 18.4 1
11/14/2018 05:21 buyer's 18.4 23
11/14/2018 05:21 2400 18.4 2
11/14/2018 05:21 pu 18.4 315
11/14/2018 05:20 24 18.4 1,830
11/14/2018 05:20 AUS 18.4 513
11/14/2018 05:20 228 18.4 160
11/14/2018 05:20 22 18.4 1,684
11/14/2018 05:20 Hispanic or Latino 18.4 8
11/14/2018 05:20 204 18.4 95
11/14/2018 05:20 SYS. 18.4 550
11/14/2018 05:20 Q 18.4 8,139
11/14/2018 05:20 203K ltv 18.4 3
11/14/2018 05:20 HMDA.X7 18.4 10
11/14/2018 05:20 Price Lock 18.4 5,213
11/14/2018 05:20 Fin 18.4 797
11/14/2018 05:20 1880 18.4 2
11/14/2018 05:20 4075 18.4 2
11/14/2018 05:20 funding fee 18.4 145
11/14/2018 05:19 188 18.4 48
11/14/2018 05:19 FL0011 18.4 1
11/14/2018 05:19 1855 18.4 1
11/14/2018 05:19 employee state 18.4 6
11/14/2018 05:19 1766 18.4 2
11/14/2018 05:19 172 18.4 74
11/14/2018 05:19 1707 18.4 3
11/14/2018 05:19 qualified 18.4 81
11/14/2018 05:19 1677 18.4 3
11/14/2018 05:19 166 18.4 64
11/14/2018 05:19 1620 18.4 3
11/14/2018 05:19 3297 18.4 2
11/14/2018 05:18 162 18.4 63
11/14/2018 05:18 1619 18.4 2
11/14/2018 05:18 16 18.4 1,584
11/14/2018 05:18 third 18.4 47
11/14/2018 05:18 Arm type 18.4 21
11/14/2018 05:18 155 18.4 59
11/14/2018 05:18 cas 18.4 227
11/14/2018 05:18 1533 18.4 3
11/14/2018 05:18 1523 18.4 3
11/14/2018 05:18 150 18.4 90
11/14/2018 05:18 18 18.4 1,362
11/14/2018 05:18 HMDA.X28 18.4 1
11/14/2018 05:18 1490 18.4 4
11/14/2018 05:17 1415 18.4 15
11/14/2018 05:17 Credit Report 18.4 55
11/14/2018 05:17 1414 18.4 15
11/14/2018 05:17 85 18.4 381
11/14/2018 05:17 1412 18.4 3
11/14/2018 05:17 1240 18.4 3
11/14/2018 05:17 inc 18.4 970
11/14/2018 05:17 141 18.4 100
11/14/2018 05:17 1407 18.4 3
11/14/2018 05:17 1389 18.4 3
11/14/2018 05:17 Reserves 18.4 26
11/14/2018 05:17 1245 18.4 3
11/14/2018 05:17 AUS.X2 18.4 22
11/14/2018 05:17 1199 18.4 4
11/14/2018 05:17 1176 18.4 3
11/14/2018 05:16 1172 18.4 18
11/14/2018 05:16 recommen 18.4 9
11/14/2018 05:16 1102 18.4 316
11/14/2018 05:16 1101b 18.4 42
11/14/2018 05:16 110 18.4 973
11/14/2018 05:16 evalua 18.4 28
11/14/2018 05:16 1069 18.4 4
11/14/2018 05:16 confi 18.4 977
11/14/2018 05:16 1066 18.4 5
11/14/2018 05:16 4091 18.4 2
11/14/2018 05:16 1059 18.4 5
11/14/2018 05:16 1041 18.4 16
11/14/2018 05:15 1039 18.4 5
11/14/2018 05:15 1003 18.4 74
11/14/2018 05:15 100 18.4 604
11/14/2018 05:15 10 18.4 3,823
11/14/2018 05:15 newhud.x217 18.4 2
11/14/2018 05:15 per 18.4 1,247
11/14/2018 05:15 1 18.4 19,692
11/14/2018 05:15 07 18.4 671
11/14/2018 05:15 051 18.4 17
11/14/2018 05:15 investor delivery dat 18.4 13
11/14/2018 05:15 0212 18.4 1
11/14/2018 05:15 0204 18.4 2
11/14/2018 05:14 0116 18.4 2
11/14/2018 05:14 loan t 18.4 1,769
11/14/2018 05:14 (Previous 4) 18.4 6
11/14/2018 05:14 (Previou 18.4 5,954
11/14/2018 05:14 (Previo 18.4 5,954
11/14/2018 05:14 (Prev 18.4 5,954
11/14/2018 05:14 NMLS.x11 18.4 1
11/14/2018 05:14 unit number 18.4 2
11/14/2018 05:14 Trans 18.4 724
11/14/2018 05:14 origination poi 18.4 25
11/14/2018 05:14 1960 18.4 2
11/14/2018 05:14 615 18.4 12
11/14/2018 05:13 sys 18.4 556
11/14/2018 05:13 HMDA Loan Purpose 18.4 1
11/14/2018 05:13 lende 18.4 985
11/14/2018 05:13 AUSf.x1 18.4 11
11/14/2018 05:12 1206 18.4 51
11/14/2018 05:12 841 18.4 32
11/14/2018 05:12 ext 18.4 1,328
11/14/2018 05:12 601 18.4 13
11/14/2018 05:12 2626 18.4 2
11/14/2018 05:12 317 18.4 77
11/14/2018 05:12 preliminary 18.4 48
11/14/2018 05:11 mornet.x40 18.4 1
11/14/2018 05:11 Vietnamese 18.4 2
11/14/2018 05:11 Borrower Can Demonstrate 18.4 24
11/14/2018 05:11 ext 18.4 1,325
11/14/2018 05:10 Mavent Compliance 18.4 18
11/14/2018 05:10 du refi 18.4 3
11/14/2018 05:10 Fee Details - Line 801g 18.4 28
11/14/2018 05:10 Correspondent Loan 18.4 52
11/14/2018 05:09 expla 18.4 24
11/14/2018 05:09 LE1.X24 18.4 1
11/14/2018 05:09 borr name 18.4 121
11/14/2018 05:09 323 18.4 30
11/14/2018 05:09 cap 18.4 102
11/14/2018 05:09 de 18.4 17,909
11/14/2018 05:09 existing 18.4 92
11/14/2018 05:08 military 18.4 78
11/14/2018 05:08 fe0115 18.4 12
11/14/2018 05:08 Sales rep 18.4 4
11/14/2018 05:08 flood 18.4 109
11/14/2018 05:07 fee 18.4 7,001
11/14/2018 05:07 closing.ntendrs 18.4 28
11/14/2018 05:07 cd1.x18 18.4 1
11/14/2018 05:07 native ha 18.4 4
11/14/2018 05:06 L 18.4 31,538
11/14/2018 05:06 File contact Underwriter cont 18.4 30
11/14/2018 05:06 Ne 18.4 9,569
11/14/2018 05:06 builder 18.4 29
11/14/2018 05:05 final cd 18.4 26
11/14/2018 05:05 team phone 18.4 2
11/14/2018 05:05 services 18.4 32
11/14/2018 05:05 hmda.x26 18.4 1
11/14/2018 05:05 ULDD.X142 18.4 1
11/14/2018 05:05 newhud2.x3335 18.4 1
11/14/2018 05:05 Borr resid 18.4 69
11/14/2018 05:04 1114 18.4 57
11/14/2018 05:04 NEWHUD.X128 18.4 11
11/14/2018 05:04 fees 18.4 1,840
11/14/2018 05:04 primary 18.4 8
11/14/2018 05:03 milestone 18.4 34
11/14/2018 05:03 2400 18.4 2
11/14/2018 05:03 2000 18.4 3
11/14/2018 05:03 Lender Nam 18.4 37
11/14/2018 05:03 proposed maturity 18.4 2
11/14/2018 05:03 763 18.4 44
11/14/2018 05:03 proposed maturity 18.4 2
11/14/2018 05:03 contract 18.4 70
11/14/2018 05:03 reason 18.4 74
11/14/2018 05:03 present housing 18.4 11
11/14/2018 05:02 Survey 18.4 45
11/14/2018 05:02 hire date 18.4 2
11/14/2018 05:02 Refinance 18.4 71
11/14/2018 05:02 source 18.4 40
11/14/2018 05:02 closing disclosure date 18.4 157
11/14/2018 05:02 4179 18.4 2
11/14/2018 05:01 Trans Details Down 18.4 2
11/14/2018 05:01 143 18.4 71
11/14/2018 05:01 empir 18.4 172
11/14/2018 05:01 lender name 18.4 37
11/14/2018 05:00 Construction loa 18.4 12
11/14/2018 05:00 3985 18.4 2
11/14/2018 05:00 borrower pair 18.4 37
11/14/2018 05:00 eXPLAIN 18.4 5
11/14/2018 04:59 804 18.4 69
11/14/2018 04:59 4 18.4 12,928
11/14/2018 04:59 MI 18.4 1,158
11/14/2018 04:59 hmda.x52 18.4 1
11/14/2018 04:59 lender identifier 18.4 4
11/14/2018 04:59 Vend 18.4 1,015
11/14/2018 04:59 Commitment 18.4 151
11/14/2018 04:58 LE2.XSTD 18.4 2
11/14/2018 04:58 regz 18.4 275
11/14/2018 04:58 HMDA.x14 18.4 1
11/14/2018 04:58 aus du 18.4 6
11/14/2018 04:58 EDISCLOSED2015TRK.EDISCLOSUREB 18.4 1
11/14/2018 04:57 VASUMM.X2 18.4 22
11/14/2018 04:57 972 18.4 11
11/14/2018 04:57 course 18.4 4
11/14/2018 04:57 loan tea 18.4 14
11/14/2018 04:57 Te 18.4 16,598
11/14/2018 04:57 FE0115 18.4 12
11/14/2018 04:56 up 18.4 249
11/14/2018 04:56 fl 18.4 281
11/14/2018 04:56 desc 18.4 4,615
11/14/2018 04:56 L 18.4 28,711
11/14/2018 04:56 lock rate 18.4 13,604
11/14/2018 04:56 purpose 18.4 52
11/14/2018 04:56 Qualified mortgage loan type 18.4 1
11/14/2018 04:56 HMDA.X34 18.4 1
11/14/2018 04:56 1204 18.4 47
11/14/2018 04:55 hom 18.4 206
11/14/2018 04:55 sponsor id 18.4 7
11/14/2018 04:55 203k 18.4 121
11/14/2018 04:55 OR 18.4 8,735
11/14/2018 04:55 see 18.4 20
11/14/2018 04:55 4198 18.4 1
11/14/2018 04:55 l182 18.4 1
11/14/2018 04:55 closing.nt 18.4 66
11/14/2018 04:55 current 18.4 228
11/14/2018 04:55 fees interest fro 18.4 2
11/14/2018 04:55 Withdrawal Request 18.4 1
11/14/2018 04:55 Note Da 18.4 16
11/14/2018 04:55 936 18.4 22
11/14/2018 04:55 construction 18.4 88
11/14/2018 04:55 Recording 18.4 31
11/14/2018 04:55 3540 18.4 2
11/14/2018 04:55 ST License ID 18.4 18
11/14/2018 04:54 confirmed 18.4 976
11/14/2018 04:54 fully amortize 18.4 2
11/14/2018 04:54 execut 18.4 34
11/14/2018 04:54 disclosure.x95 18.4 11
11/14/2018 04:54 conversion 18.4 7
11/14/2018 04:54 Automated 18.4 4
11/14/2018 04:54 Holdba 18.4 2
11/14/2018 04:54 3039 18.4 2
11/14/2018 04:54 1524 18.4 4
11/14/2018 04:54 qm.x2 18.4 111
11/14/2018 04:54 interview date 18.4 1
11/14/2018 04:54 appraisal revie 18.4 5
11/14/2018 04:54 qm.x2 18.4 111
11/14/2018 04:54 period 18.4 92
11/14/2018 04:54 ae 18.4 734
11/14/2018 04:54 period 18.4 92
11/14/2018 04:53 MIP REFUND 18.4 1
11/14/2018 04:53 page 4 18.4 181
11/14/2018 04:53 orgID 18.4 1
11/14/2018 04:53 of 18.4 1,497
11/14/2018 04:53 license review 18.4 1
11/14/2018 04:53 l245 18.4 2
11/14/2018 04:53 transaction fees 18.4 2
11/14/2018 04:53 interest 18.4 292
11/14/2018 04:53 payment coupon 18.4 98
11/14/2018 04:53 interest 18.4 292
11/14/2018 04:53 pay date 18.4 130
11/14/2018 04:53 has 18.4 300
11/14/2018 04:53 Borrower id 18.4 467
11/14/2018 04:53 has 18.4 300
11/14/2018 04:53 4151 18.4 2
11/14/2018 04:53 fm 18.4 216
11/14/2018 04:53 est c 18.4 8,171
11/14/2018 04:53 ms.status 18.4 3
11/14/2018 04:53 lock (pre 18.4 6,770
11/14/2018 04:53 est c 18.4 8,171
11/14/2018 04:53 discount points 18.4 15
11/14/2018 04:53 cb 18.4 84
11/14/2018 04:53 act 18.4 1,396
11/14/2018 04:53 discount points 18.4 15
11/14/2018 04:53 nmls.x3 18.4 1
11/14/2018 04:53 bank 18.4 61
11/14/2018 04:53 automob 18.4 7
11/14/2018 04:53 Inte 18.4 574
11/14/2018 04:53 OR ID 18.4 1,887
11/14/2018 04:53 book 18.4 10
11/14/2018 04:53 OR ID 18.4 1,887
11/14/2018 04:53 Negative Amortization 18.4 15
11/14/2018 04:53 applicatio date 18.4 12
11/14/2018 04:53 Negative Amortization 18.4 15
11/14/2018 04:53 NE 18.4 9,425
11/14/2018 04:53 Loan Amo 18.4 357
11/14/2018 04:53 NE 18.4 9,425
11/14/2018 04:53 IR0005 18.4 1
11/14/2018 04:53 HPML 18.4 7
11/14/2018 04:53 FR0108 18.4 1
11/14/2018 04:53 AUSTRACKING 18.4 192
11/14/2018 04:53 370 18.4 142
11/14/2018 04:52 337 18.4 134
11/14/2018 04:52 3246 18.4 2
11/14/2018 04:52 1530 18.4 4
11/14/2018 04:52 0102 18.4 2
11/14/2018 04:52 servicing 18.4 350
11/14/2018 04:52 serv 18.4 950
11/14/2018 04:52 referral 18.4 6
11/14/2018 04:52 purchase advice 18.4 187
11/14/2018 04:52 pro 18.4 1,988
11/14/2018 04:52 other borrower 18.4 13
11/14/2018 04:52 org 18.4 82
11/14/2018 04:52 880 18.4 21
11/14/2018 04:52 org 18.4 82
11/14/2018 04:52 new loan 18.4 26
11/14/2018 04:52 lockrate.2287 18.4 1
11/14/2018 04:52 new 18.4 5,805
11/14/2018 04:52 DI 18.4 5,721
11/14/2018 04:52 loan nu 18.4 32
11/14/2018 04:52 condo 18.4 18
11/14/2018 04:52 COREMILESTONE 18.4 1
11/14/2018 04:52 borr 18.4 3,376
11/14/2018 04:52 arm type 18.4 21
11/14/2018 04:52 country 18.4 3
11/14/2018 04:52 ULDD.GNM.MrtggPrgrmType 18.4 1
11/14/2018 04:52 Subject indicator 18.4 6
11/14/2018 04:52 history 18.4 70
11/14/2018 04:52 Service F 18.4 180
11/14/2018 04:52 Security Inst 18.4 24
11/14/2018 04:52 Secti 18.4 819
11/14/2018 04:52 QM.x 18.4 372
11/14/2018 04:51 last cd 18.4 6
11/14/2018 04:51 zip 18.4 270
11/14/2018 04:51 Purchase A 18.4 257
11/14/2018 04:51 Previous 18.4 6,059
11/14/2018 04:51 ULDD.X188 18.4 1
11/14/2018 04:51 Organization 18.4 42
11/14/2018 04:51 years 18.4 56
11/14/2018 04:51 No 18.4 1,013
11/14/2018 04:51 Middle 18.4 4
11/14/2018 04:51 MORNET.X71 18.4 1
11/14/2018 04:51 MIP fund 18.4 2
11/14/2018 04:51 LE2. 18.4 53
11/14/2018 04:51 L358 18.4 1
11/14/2018 04:51 x133 18.4 38
11/14/2018 04:51 HMDA ex 18.4 1
11/14/2018 04:51 DISCLOSURE.X459 18.4 1
11/14/2018 04:51 DENIAL.X6 18.4 10
11/14/2018 04:51 DENIAL.X3 18.4 10
11/14/2018 04:51 x13 18.4 423
11/14/2018 04:51 DENIAL.X3 18.4 10
11/14/2018 04:51 DENIAL. 18.4 72
11/14/2018 04:51 reference 18.4 18
11/14/2018 04:51 DENIAL. 18.4 72
11/14/2018 04:51 Assum 18.4 33
11/14/2018 04:51 waiver 18.4 2
11/14/2018 04:51 369 18.4 153
11/14/2018 04:51 357 18.4 32
11/14/2018 04:51 2984 18.4 2
11/14/2018 04:51 2568 18.4 2
11/14/2018 04:51 S 18.4 29,651
11/14/2018 04:51 trustee 18.4 81
11/14/2018 04:51 represen 18.4 13
11/14/2018 04:51 party type 18.4 7
11/14/2018 04:51 negati 18.4 22
11/14/2018 04:51 mor 18.4 1,588
11/14/2018 04:51 waived 18.4 29
11/14/2018 04:51 mc 18.4 65
11/14/2018 04:50 manageme 18.4 362
11/14/2018 04:50 gro 18.4 39
11/14/2018 04:50 closing cost 18.4 122
11/14/2018 04:50 funding d 18.4 345
11/14/2018 04:50 verbal 18.4 1
11/14/2018 04:50 flood cert 18.4 12
11/14/2018 04:50 bor 18.4 3,522
11/14/2018 04:50 vend.x677 18.4 1
11/14/2018 04:50 bor 18.4 3,522
11/14/2018 04:50 loan officer 18.4 159
11/14/2018 04:50 bond program 18.4 2
11/14/2018 04:50 vend.x500 18.4 1
11/14/2018 04:50 1767 18.4 2
11/14/2018 04:50 acre 18.4 2
11/14/2018 04:50 constru 18.4 111
11/14/2018 04:50 acre 18.4 2
11/14/2018 04:50 Trans Details Est Closing 18.4 14
11/14/2018 04:50 SUBJECT PROPERTY TITLE NAME 18.4 2
11/14/2018 04:50 annual mi 18.4 9
11/14/2018 04:50 X 18.4 16,795
11/14/2018 04:50 SUBJECT PROPERTY TITLE NAME 18.4 2
11/14/2018 04:50 S 18.4 29,651
11/14/2018 04:50 ein 18.4 27
11/14/2018 04:50 vend.x140 18.4 1
11/14/2018 04:50 months ON JOB 18.4 2
11/14/2018 04:50 File conta 18.4 978
11/14/2018 04:50 File cont 18.4 978
11/14/2018 04:50 3453 18.4 2
11/14/2018 04:50 mca 18.4 63
11/14/2018 04:50 280 18.4 157
11/14/2018 04:50 va funding fee 18.4 6
11/14/2018 04:50 280 18.4 157
11/14/2018 04:50 (Previo 18.4 5,954
11/14/2018 04:50 vetera 18.4 51
11/14/2018 04:50 sur 18.4 2,639
11/14/2018 04:50 va f 18.4 412
11/14/2018 04:50 sur 18.4 2,639
11/14/2018 04:50 si 18.4 8,575
11/14/2018 04:50 ne 18.4 9,279
11/14/2018 04:50 CUST 18.4 200
11/14/2018 04:50 ne 18.4 9,279
11/14/2018 04:50 va case 18.4 1
11/14/2018 04:50 ms.st 18.4 5
11/14/2018 04:50 party 18.4 91
11/14/2018 04:50 cd req 18.4 1
11/14/2018 04:50 seco 18.4 38
11/14/2018 04:50 cd 18.4 1,234
11/14/2018 04:50 case 18.4 21
11/14/2018 04:50 v 18.4 10,722
11/14/2018 04:49 cd 18.4 1,234
11/14/2018 04:49 bir 18.4 1
11/14/2018 04:49 MI 18.4 1,160
11/14/2018 04:49 service. 18.4 148
11/14/2018 04:49 NEWH 18.4 5,705
11/14/2018 04:49 Monthly 18.4 188
11/14/2018 04:49 FM0020 18.4 1
11/14/2018 04:49 rental income 18.4 7
11/14/2018 04:49 FHA case 18.4 4
11/14/2018 04:49 govt 18.4 22
11/14/2018 04:49 DEED 18.4 12
11/14/2018 04:49 Casasrn.x107 18.4 1
11/14/2018 04:49 uw 18.4 22
11/14/2018 04:49 3000 18.4 2
11/14/2018 04:49 special f 18.4 11
11/14/2018 04:49 edisclos 18.4 47
11/14/2018 04:49 Warranty 18.4 6
11/14/2018 04:49 Subordinat 18.4 58
11/14/2018 04:49 userid 18.4 4
11/14/2018 04:49 first pay dat 18.4 6
11/14/2018 04:49 declaration l 18.4 32
11/14/2018 04:49 40 18.4 886
11/14/2018 04:49 use 18.4 516
11/14/2018 04:49 last 18.4 496
11/14/2018 04:49 1883 18.4 1
11/14/2018 04:49 descript 18.4 383
11/14/2018 04:49 last 18.4 496
11/14/2018 04:49 AUStracking 18.4 192
11/14/2018 04:49 UWC. 18.4 29
11/14/2018 04:49 MORTGAGE PR 18.4 189
11/14/2018 04:49 Post closing 18.4 57
11/14/2018 04:49 usda 18.4 224
11/14/2018 04:49 Post closing 18.4 57
11/14/2018 04:49 FULFille 18.4 39
11/14/2018 04:49 file ID 18.4 16
11/14/2018 04:49 2592 18.4 12
11/14/2018 04:49 upfont 18.4 12
11/14/2018 04:49 2592 18.4 12
11/14/2018 04:49 disclosure. 18.4 1,186
11/14/2018 04:49 units 18.4 30
11/14/2018 04:48 4197 18.4 2
11/14/2018 04:48 unit 18.4 52
11/14/2018 04:48 underwriting 18.4 193
11/14/2018 04:48 FV.X347 18.4 1
11/14/2018 04:48 underwriter email 18.4 2
11/14/2018 04:48 under 18.4 278
11/14/2018 04:48 uldd.x28 18.4 1
11/14/2018 04:48 payment date 18.4 100
11/14/2018 04:48 uldd.x187 18.4 1
11/14/2018 04:48 uldd.x171 18.4 1
11/14/2018 04:48 loan originator ID 18.4 3
11/14/2018 04:47 uldd - Investor feature id 18.4 3
11/14/2018 04:47 disclosure.x104 18.4 11
11/14/2018 04:47 2626 18.4 2
11/14/2018 04:47 uldd - Investor 18.4 14
11/14/2018 04:47 1399 18.4 3
11/14/2018 04:47 uldd - I 18.4 137
11/14/2018 04:47 coverage 18.4 12
11/14/2018 04:47 uldd 18.4 298
11/14/2018 04:47 FHA 203k B11 18.4 1
11/14/2018 04:47 ufmip 18.4 8
11/14/2018 04:47 u 18.4 25,683
11/14/2018 04:47 type 18.4 911
11/14/2018 04:46 ty 18.4 2,384
11/14/2018 04:46 verification 18.4 16
11/14/2018 04:46 included 18.4 17
11/14/2018 04:46 trans details 18.4 421
11/14/2018 04:46 Unpaid Principal Bal 18.4 8
11/14/2018 04:46 trade 18.4 19
11/14/2018 04:46 tim 18.4 536
11/14/2018 04:46 tr 18.4 2,453
11/14/2018 04:46 tql 18.4 125
11/14/2018 04:46 title 18.4 333
11/14/2018 04:46 til initial 18.4 3
11/14/2018 04:46 loan originato 18.4 10
11/14/2018 04:46 Loa 18.4 1,901
11/14/2018 04:46 til init 18.4 3
11/14/2018 04:45 test 18.4 55
11/14/2018 04:45 REQUEST.X10 18.4 1
11/14/2018 04:45 wh 18.4 5,854
11/14/2018 04:45 termination 18.4 12
11/14/2018 04:45 rec 18.4 6,295
11/14/2018 04:45 temporary buydown 18.4 3
11/14/2018 04:45 3032 18.4 2
11/14/2018 04:45 ssa 18.4 98
11/14/2018 04:45 re 18.4 20,414
11/14/2018 04:45 temporary b 18.4 3
11/14/2018 04:45 rate s 18.4 13,918
11/14/2018 04:45 Use Actual Down Payment & Closing Costs Financed 18.4 1
11/14/2018 04:45 team 18.4 12
11/14/2018 04:45 price 18.4 5,250
11/14/2018 04:45 mic 18.4 3
11/14/2018 04:45 taxes 18.4 59
11/14/2018 04:45 personal 18.4 23
11/14/2018 04:45 pri 18.4 5,555
11/14/2018 04:45 tax 18.4 299
11/14/2018 04:45 previous 18.4 7,061
11/14/2018 04:45 newh 18.4 5,803
11/14/2018 04:45 18 18.4 1,350
11/14/2018 04:45 fullfi 18.4 2
11/14/2018 04:45 new h 18.4 5,845
11/14/2018 04:44 mo 18.4 11,444
11/14/2018 04:44 m 18.4 24,251
11/14/2018 04:44 target 18.4 13
11/14/2018 04:44 reference 18.4 18
11/14/2018 04:44 lockrate. 18.4 4,531
11/14/2018 04:44 NEWHUD2. 18.4 3,978
11/14/2018 04:44 table 18.4 63
11/14/2018 04:44 lockrate 18.4 12,421
11/14/2018 04:44 Lock St 18.4 13,013
11/14/2018 04:44 borr name 18.4 125
11/14/2018 04:44 lock rate 18.4 13,604
11/14/2018 04:44 LOCKRAT 18.4 12,421
11/14/2018 04:44 lock price 18.4 5,213
11/14/2018 04:44 Fee Li 18.4 6,022
11/14/2018 04:44 it 18.4 4,463
11/14/2018 04:44 Fee 18.4 8,153
11/14/2018 04:44 f 18.4 17,026
11/14/2018 04:44 vi 18.4 8,253
11/14/2018 04:44 did 18.4 147
11/14/2018 04:44 VASUMM.X22 18.4 1
11/14/2018 04:44 es 18.4 16,824
11/14/2018 04:44 su 18.4 3,914
11/14/2018 04:44 res 18.4 1,274
11/14/2018 04:44 en 18.4 16,787
11/14/2018 04:44 poc 18.4 1,381
11/14/2018 04:44 book 18.4 10
11/14/2018 04:44 modifi 18.4 20
11/14/2018 04:44 Base Loan Amount 18.4 11
11/14/2018 04:44 disc 18.4 2,948
11/14/2018 04:44 di 18.4 6,011
11/14/2018 04:44 newhud2.x 18.4 3,978
11/14/2018 04:44 d 18.4 30,763
11/14/2018 04:44 newhu 18.4 5,803
11/14/2018 04:44 1848 18.4 1
11/14/2018 04:43 lock request 18.4 8,041
11/14/2018 04:43 nam 18.4 1,080
11/14/2018 04:43 amount 18.4 4,153
11/14/2018 04:43 refinance type 18.4 6
11/14/2018 04:43 lock ex 18.4 1,410
11/14/2018 04:43 adjustment 18.4 5,419
11/14/2018 04:43 t 18.4 29,417
11/14/2018 04:43 line 18.4 7,407
11/14/2018 04:43 HMDA.X11 18.4 1
11/14/2018 04:43 Amount 18.4 4,036
11/14/2018 04:43 em 18.4 2,191
11/14/2018 04:43 survey 18.4 45
11/14/2018 04:43 adjustme 18.4 5,420
11/14/2018 04:43 j 18.4 10,866
11/14/2018 04:43 V 18.4 12,028
11/14/2018 04:43 ULD 18.4 304
11/14/2018 04:43 for 18.4 1,146
11/14/2018 04:43 Sales Rep 18.4 4
11/14/2018 04:43 fee borr 18.4 1,462
11/14/2018 04:43 extensio 18.4 1,035
11/14/2018 04:43 SE 18.4 16,969
11/14/2018 04:43 summary 18.4 80
11/14/2018 04:43 exten 18.4 1,124
11/14/2018 04:43 el 18.4 7,577
11/14/2018 04:43 summ 18.4 197
11/14/2018 04:43 custom 18.4 1,178
11/14/2018 04:43 Pri 18.4 5,555
11/14/2018 04:43 cl 18.4 4,160
11/14/2018 04:43 sum 18.4 327
11/14/2018 04:43 334 18.4 36
11/14/2018 04:43 P 18.4 25,017
11/14/2018 04:43 by o 18.4 1,240
11/14/2018 04:43 credit 18.4 482
11/14/2018 04:43 bu 18.4 3,739
11/14/2018 04:43 subordinate 18.4 54
11/14/2018 04:43 bo 18.4 3,954
11/14/2018 04:43 base 18.4 9,293
11/14/2018 04:43 automobile 18.4 7
11/14/2018 04:43 subo 18.4 58
11/14/2018 04:43 ap 18.4 1,431
11/14/2018 04:43 NEWHUD 18.4 5,803
11/14/2018 04:43 adj 18.4 10,157
11/14/2018 04:43 submitting 18.4 13
11/14/2018 04:42 Mo 18.4 11,444
11/14/2018 04:42 act 18.4 1,443
11/14/2018 04:42 X 18.4 17,090
11/14/2018 04:42 other 18.4 1,094
11/14/2018 04:42 M 18.4 24,251
11/14/2018 04:42 subject state 18.4 33
11/14/2018 04:42 Lock (Most Recent 18.4 5,533
11/14/2018 04:42 subject indicator 18.4 6
11/14/2018 04:42 Un 18.4 6,079
11/14/2018 04:42 LOCKRATE 18.4 12,421
11/14/2018 04:42 Sell 18.4 4,823
11/14/2018 04:42 plat 18.4 24
11/14/2018 04:42 sub 18.4 547
11/14/2018 04:42 Request 18.4 8,313
11/14/2018 04:42 Com 18.4 4,348
11/14/2018 04:42 Re 18.4 20,414
11/14/2018 04:42 Base 18.4 9,293
11/14/2018 04:42 street 18.4 149
11/14/2018 04:42 REQU 18.4 8,636
11/14/2018 04:42 Mort 18.4 1,556
11/14/2018 04:42 2 18.4 20,540
11/14/2018 04:42 MI 18.4 1,199
11/14/2018 04:42 1 18.4 21,213
11/14/2018 04:42 str 18.4 603
11/14/2018 04:42 Lock 18.4 13,781
11/14/2018 04:42 BenNm 18.4 2
11/14/2018 04:42 180 18.4 42
11/14/2018 04:42 t 18.4 32,362
11/14/2018 04:42 Hud 1 18.4 3,271
11/14/2018 04:42 spec 18.4 128
11/14/2018 04:42 pro 18.4 2,029
11/14/2018 04:42 debt 18.4 70
11/14/2018 04:42 resci 18.4 3
11/14/2018 04:42 File contac 18.4 1,004
11/14/2018 04:42 step rate 18.4 1
11/14/2018 04:42 payee code 18.4 10
11/14/2018 04:42 category 18.4 70
11/14/2018 04:42 se 18.4 16,969
11/14/2018 04:42 payee code 18.4 10
11/14/2018 04:42 party type 18.4 7
11/14/2018 04:42 EDISCLOSED2015TRK.EDISCLOSUREBORROWE 18.4 1
11/14/2018 04:42 s 18.4 32,493
11/14/2018 04:42 party type 18.4 7
11/14/2018 04:42 step payment 18.4 2
11/14/2018 04:42 request 18.4 8,313
11/14/2018 04:42 parcel 18.4 1
11/14/2018 04:42 DISCLOS 18.4 2,770
11/14/2018 04:42 parcel 18.4 1
11/14/2018 04:42 mor 18.4 1,588
11/14/2018 04:42 Inspection 18.4 19
11/14/2018 04:42 Closing Disclosu 18.4 1,015
11/14/2018 04:42 mineral 18.4 2
11/14/2018 04:41 rate request lock 18.4 7,896
11/14/2018 04:41 step paym 18.4 2
11/14/2018 04:41 this 18.4 18
11/14/2018 04:41 mineral 18.4 2
11/14/2018 04:41 Closing 18.4 2,119
11/14/2018 04:41 lot 18.4 8
11/14/2018 04:41 rate 18.4 13,952
11/14/2018 04:41 life of loan 18.4 3
11/14/2018 04:41 ot 18.4 3,630
11/14/2018 04:41 newhud2.x2841 18.4 1
11/14/2018 04:41 Prope 18.4 621
11/14/2018 04:41 CE 18.4 12,465
11/14/2018 04:41 life of loan 18.4 3
11/14/2018 04:41 step 18.4 8
11/14/2018 04:41 initial fi 18.4 15
11/14/2018 04:41 Borr F 18.4 2,427
11/14/2018 04:41 borr 18.4 3,282
11/14/2018 04:41 or 18.4 8,800
11/14/2018 04:41 5 18.4 9,484
11/14/2018 04:41 uldd appraisal id 18.4 1
11/14/2018 04:41 std 18.4 45
11/14/2018 04:41 ms.st 18.4 5
11/14/2018 04:41 newhud2 18.4 3,978
11/14/2018 04:41 newhud.x1143 18.4 1
11/14/2018 04:41 model 18.4 6
11/14/2018 04:41 ne 18.4 9,604
11/14/2018 04:41 x98 18.4 77
11/14/2018 04:41 status 18.4 174
11/14/2018 04:41 co-bo 18.4 582
11/14/2018 04:41 608 18.4 24
11/14/2018 04:41 x223 18.4 22
11/14/2018 04:41 stable monthly income 18.4 4
11/14/2018 04:41 n 18.4 31,289
11/14/2018 04:41 written 18.4 19
11/14/2018 04:41 wish 18.4 15
11/14/2018 04:41 los 18.4 4,008
11/14/2018 04:41 lockr 18.4 12,421
11/14/2018 04:41 verified 18.4 12
11/14/2018 04:41 lock 3 18.4 7,397
11/14/2018 04:41 st 18.4 15,360
11/14/2018 04:41 471 18.4 35
11/14/2018 04:41 verif 18.4 60
11/14/2018 04:41 lock (p 18.4 6,770
11/14/2018 04:41 vend.x735 18.4 1
11/14/2018 04:41 ssn 18.4 173
11/14/2018 04:41 lock ( 18.4 12,310
11/14/2018 04:41 vend.x43 18.4 11
11/14/2018 04:41 lock 18.4 13,781
11/14/2018 04:41 ven 18.4 1,105
11/14/2018 04:41 valuation 18.4 9
11/14/2018 04:41 HMDA.X12 18.4 1
11/14/2018 04:41 ssa-89 18.4 12
11/14/2018 04:41 uwC.AC 18.4 2
11/14/2018 04:40 lo 18.4 19,622
11/14/2018 04:40 uldd.x148 18.4 1
11/14/2018 04:40 trans detail total late payment 18.4 1
11/14/2018 04:40 le 18.4 5,984
11/14/2018 04:40 trans detail preapproval 18.4 1
11/14/2018 04:40 ssa 18.4 49
11/14/2018 04:40 trans de 18.4 527
11/14/2018 04:40 SYS.X268 18.4 1
11/14/2018 04:40 tpoi 18.4 12
11/14/2018 04:40 specific 18.4 65
11/14/2018 04:40 the 18.4 1,314
11/14/2018 04:40 solar 18.4 4
11/14/2018 04:40 terms.intr 18.4 1
11/14/2018 04:40 templat 18.4 24
11/14/2018 04:40 social 18.4 16
11/14/2018 04:40 telephone 18.4 32
11/14/2018 04:40 subject property type fan 18.4 12
11/14/2018 04:40 document.company 18.4 1
11/14/2018 04:40 subject pr 18.4 340
11/14/2018 04:40 signing 18.4 27
11/14/2018 04:40 statement 18.4 16
11/14/2018 04:40 763 18.4 44
11/14/2018 04:40 started 18.4 2
11/14/2018 04:40 x134 18.4 37
11/14/2018 04:40 equifax 18.4 177
11/14/2018 04:40 shee 18.4 102
11/14/2018 04:40 in 18.4 16,708
11/14/2018 04:40 settlementagent 18.4 11
11/14/2018 04:40 serv 18.4 953
11/14/2018 04:40 16 18.4 1,584
11/14/2018 04:40 i 18.4 32,630
11/14/2018 04:40 sellers 18.4 28
11/14/2018 04:40 section of housi 18.4 1
11/14/2018 04:40 section of ho 18.4 1
11/14/2018 04:40 hu 18.4 6,446
11/14/2018 04:40 side 18.4 5,248
11/14/2018 04:39 second term 18.4 1
11/14/2018 04:39 sec 35 hpml average prime offer rat 18.4 1
11/14/2018 04:39 fi 18.4 5,152
11/14/2018 04:39 fee 18.4 8,153
11/14/2018 04:39 shop 18.4 278
11/14/2018 04:39 det 18.4 4,347
11/14/2018 04:39 right to ca 18.4 21
11/14/2018 04:39 c 18.4 29,929
11/14/2018 04:39 shipping 18.4 33
11/14/2018 04:39 DEB 18.4 60
11/14/2018 04:39 rig 18.4 247
11/14/2018 04:39 ar 18.4 6,425
11/14/2018 04:39 1109 18.4 69
11/14/2018 04:39 Rate lock 18.4 13,604
11/14/2018 04:39 ret 18.4 125
11/14/2018 04:39 sheet 18.4 102
11/14/2018 04:39 IL 18.4 6,224
11/14/2018 04:39 respa.x6 18.4 1
11/14/2018 04:39 repur 18.4 7
11/14/2018 04:39 she 18.4 119
11/14/2018 04:39 reporting 18.4 4
11/14/2018 04:39 HU 18.4 6,446
11/14/2018 04:39 CD4.X9 18.4 1
11/14/2018 04:39 repair 18.4 9
11/14/2018 04:39 sharing 18.4 11
11/14/2018 04:39 E 18.4 34,199
11/14/2018 04:39 D 18.4 30,763
11/14/2018 04:39 rent income 18.4 14
11/14/2018 04:39 reo 18.4 5
11/14/2018 04:39 rent 18.4 384
11/14/2018 04:39 Cl 18.4 4,160
11/14/2018 04:39 sex 18.4 3
11/14/2018 04:39 relationship 18.4 44
11/14/2018 04:39 relati 18.4 59
11/14/2018 04:39 AR 18.4 6,425
11/14/2018 04:39 refun 18.4 66
11/14/2018 04:39 2106 18.4 35
11/14/2018 04:39 8 18.4 11,315
11/14/2018 04:39 refinance 18.4 72
11/14/2018 04:39 line descr 18.4 275
11/14/2018 04:39 refi type 18.4 8
11/14/2018 04:38 setup 18.4 19
11/14/2018 04:38 0109 18.4 2
11/14/2018 04:38 7 18.4 9,846
11/14/2018 04:38 recommen 18.4 9
11/14/2018 04:38 settlementagent 18.4 11
11/14/2018 04:38 reasons 18.4 15
11/14/2018 04:38 122 18.4 70
11/14/2018 04:38 rate se 18.4 10,169
11/14/2018 04:38 set 18.4 323
11/14/2018 04:38 purpo 18.4 55
11/14/2018 04:38 product code 18.4 12
11/14/2018 04:38 prior 18.4 35
11/14/2018 04:38 1041 18.4 15
11/14/2018 04:38 servicing 18.4 350
11/14/2018 04:38 prepaymen 18.4 50
11/14/2018 04:38 (Previous 18.4 6,974
11/14/2018 04:38 points and fees 18.4 137
11/14/2018 04:38 servicer 18.4 103
11/14/2018 04:38 35 18.4 1,213
11/14/2018 04:38 u 18.4 28,359
11/14/2018 04:38 Loan Pu 18.4 52
11/14/2018 04:38 servi 18.4 886
11/14/2018 04:38 LOG.MS.LASTCO 18.4 1
11/14/2018 04:38 307 18.4 104
11/14/2018 04:38 LO 18.4 19,622
11/14/2018 04:38 ty 18.4 2,483
11/14/2018 04:38 LE2.X96 18.4 1
11/14/2018 04:38 sequence 18.4 12
11/14/2018 04:38 to 18.4 6,016
11/14/2018 04:38 th 18.4 2,548
11/14/2018 04:38 LE2.X5 18.4 1
11/14/2018 04:38 sentdate 18.4 6
11/14/2018 04:38 35 18.4 1,213
11/14/2018 04:38 LE1.X24 18.4 1
11/14/2018 04:38 e 18.4 31,126
11/14/2018 04:38 sur 18.4 2,791
11/14/2018 04:38 sent date 18.4 40
11/14/2018 04:38 LE sen 18.4 36
11/14/2018 04:38 reque 18.4 8,324
11/14/2018 04:37 LE Loan Snapshot - Loan Amount 18.4 1
11/14/2018 04:37 L81 18.4 2
11/14/2018 04:37 rate lock 18.4 13,604
11/14/2018 04:37 L245 18.4 2
11/14/2018 04:37 605 18.4 13
11/14/2018 04:37 Info not 18.4 24
11/14/2018 04:37 rat 18.4 14,117
11/14/2018 04:37 Interviewer's License Number 18.4 2
11/14/2018 04:37 ID 18.4 10,113
11/14/2018 04:37 prev 18.4 7,122
11/14/2018 04:37 sent 18.4 177
11/14/2018 04:37 va rl 18.4 1
11/14/2018 04:37 HMDA.X109 18.4 1
11/14/2018 04:37 updated 18.4 9
11/14/2018 04:37 pa 18.4 8,126
11/14/2018 04:37 updated 18.4 9
11/14/2018 04:37 File Contacts Loan Proce 18.4 6
11/14/2018 04:37 1305 18.4 58
11/14/2018 04:37 beacon 18.4 172
11/14/2018 04:37 send 18.4 21
11/14/2018 04:37 Fil 18.4 1,148
11/14/2018 04:37 app. 18.4 1
11/14/2018 04:37 newhud2.x2478 18.4 1
11/14/2018 04:37 app. 18.4 1
11/14/2018 04:37 FM0041 18.4 1
11/14/2018 04:37 p 18.4 25,017
11/14/2018 04:37 1264 18.4 3
11/14/2018 04:37 FL0015 18.4 1
11/14/2018 04:37 sen 18.4 201
11/14/2018 04:37 1010 18.4 46
11/14/2018 04:37 FHA Sponsor 18.4 3
11/14/2018 04:37 1010 18.4 46
11/14/2018 04:37 o 18.4 32,444
11/14/2018 04:37 wr 18.4 260
11/14/2018 04:37 FE0217 18.4 1
11/14/2018 04:37 und 18.4 875
11/14/2018 04:37 margin 18.4 2,056
11/14/2018 04:37 FE0115 18.4 12
11/14/2018 04:37 und 18.4 875
11/14/2018 04:37 selling 18.4 1
11/14/2018 04:37 688 18.4 34
11/14/2018 04:37 uldd.x27 18.4 1
11/14/2018 04:37 lock (pre 18.4 6,770
11/14/2018 04:37 Document.DateOrdere 18.4 1
11/14/2018 04:37 type 18.4 931
11/14/2018 04:37 Document typ 18.4 26
11/14/2018 04:37 type 18.4 931
11/14/2018 04:37 seller nam 18.4 17
11/14/2018 04:37 total loan 18.4 67
11/14/2018 04:37 Document Signing 18.4 1
11/14/2018 04:37 lock (Most rec 18.4 5,533
11/14/2018 04:37 total loan 18.4 67
11/14/2018 04:37 Disclosure.X564 18.4 1
11/14/2018 04:37 survey date 18.4 3
11/14/2018 04:37 Disclosure Information 18.4 1
11/14/2018 04:37 aka 18.4 2
11/14/2018 04:37 loc 18.4 13,876
11/14/2018 04:37 request 18.4 7,208
11/14/2018 04:37 seller 18.4 1,953
11/14/2018 04:37 refund 18.4 61
11/14/2018 04:37 113 18.4 152
11/14/2018 04:37 Date I 18.4 1,281
11/14/2018 04:37 refund 18.4 61
11/14/2018 04:37 rescission 18.4 2
11/14/2018 04:37 qual 18.4 320
11/14/2018 04:37 DISCLOSURE.X631 18.4 1
11/14/2018 04:37 processor 18.4 25
11/14/2018 04:37 interim 18.4 263
11/14/2018 04:37 DISCLOSURE.X481 18.4 1
11/14/2018 04:36 interim 18.4 263
11/14/2018 04:36 li 18.4 9,654
11/14/2018 04:36 DISCLOSURE.X48 18.4 11
11/14/2018 04:36 in 18.4 16,461
11/14/2018 04:36 selected 18.4 12
11/14/2018 04:36 hmda.x24 18.4 1
11/14/2018 04:36 id 18.4 10,113
11/14/2018 04:36 hmda. 18.4 94
11/14/2018 04:36 DISCLOSURE.X364 18.4 1
11/14/2018 04:36 hmda. 18.4 94
11/14/2018 04:36 funded 18.4 8
11/14/2018 04:36 ice 18.4 6,657
11/14/2018 04:36 funded 18.4 8
11/14/2018 04:36 estimated 18.4 41
11/14/2018 04:36 section 18.4 783
11/14/2018 04:36 g 18.4 10,868
11/14/2018 04:36 credit decision 18.4 14
11/14/2018 04:36 DD001 18.4 10
11/14/2018 04:36 coop 18.4 12
11/14/2018 04:36 des 18.4 5,625
11/14/2018 04:36 conv 18.4 9
11/14/2018 04:36 Credit Rpt Ref 18.4 1
11/14/2018 04:36 disclosure.x95 18.4 11
11/14/2018 04:36 closer 18.4 6
11/14/2018 04:36 Closing Discl 18.4 1,016
11/14/2018 04:36 capiaP.X9 18.4 1
11/14/2018 04:36 de 18.4 17,909
11/14/2018 04:36 buy 18.4 2,926
11/14/2018 04:36 Document 18.4 488
11/14/2018 04:36 Census 18.4 2
11/14/2018 04:36 da 18.4 2,320
11/14/2018 04:36 branch id 18.4 65
11/14/2018 04:36 rate lock buy requested by 18.4 12
11/14/2018 04:36 branch id 18.4 65
11/14/2018 04:36 bor 18.4 3,682
11/14/2018 04:36 COND.OPEN.P 18.4 2
11/14/2018 04:36 bor 18.4 3,682
11/14/2018 04:36 attenti 18.4 12
11/14/2018 04:36 com 18.4 4,348
11/14/2018 04:36 CONCESSION 18.4 113
11/14/2018 04:36 approval date 18.4 32
11/14/2018 04:36 second 18.4 38
11/14/2018 04:36 co 18.4 10,428
11/14/2018 04:36 amount 18.4 4,074
11/14/2018 04:36 CD3.X12 18.4 40
11/14/2018 04:36 2499 18.4 13
11/14/2018 04:36 amount 18.4 4,074
11/14/2018 04:36 610 18.4 14
11/14/2018 04:36 CD1.XD9 18.4 1
11/14/2018 04:36 amortization type 18.4 10
11/14/2018 04:36 hmda.x93 18.4 1
11/14/2018 04:36 amortization type 18.4 10
11/14/2018 04:36 CASASRN.X107 18.4 1
11/14/2018 04:36 bor 18.4 3,801
11/14/2018 04:36 amortization 18.4 32
11/14/2018 04:36 sec 32 18.4 258
11/14/2018 04:36 additional 18.4 389
11/14/2018 04:36 CASASRN.X1 18.4 55
11/14/2018 04:36 VF 18.4 2
11/14/2018 04:36 Business 18.4 177
11/14/2018 04:36 VF 18.4 2
11/14/2018 04:36 score 18.4 561
11/14/2018 04:36 ULDD.X1 18.4 100
11/14/2018 04:36 MIP REFUND 18.4 1
11/14/2018 04:35 Borrower N 18.4 1,826
11/14/2018 04:35 ULDD.X1 18.4 100
11/14/2018 04:35 amo 18.4 4,290
11/14/2018 04:35 Trans Details 18.4 430
11/14/2018 04:35 Borrower Indicator 18.4 13
11/14/2018 04:35 Trans Details 18.4 430
11/14/2018 04:35 sched 18.4 235
11/14/2018 04:35 sys.x2 18.4 104
11/14/2018 04:35 Real estate owned 18.4 1
11/14/2018 04:35 Borr Race Info not prov 18.4 2
11/14/2018 04:35 Real estate owned 18.4 1
11/14/2018 04:35 Milestone Date 18.4 18
11/14/2018 04:35 Borr Employe 18.4 141
11/14/2018 04:35 Milestone Date 18.4 18
11/14/2018 04:35 Mavent 18.4 18
11/14/2018 04:35 scenario 18.4 75
11/14/2018 04:35 BE0004 18.4 2
11/14/2018 04:35 Mavent 18.4 18
11/14/2018 04:35 Assistant 18.4 2
11/14/2018 04:35 LoanTeammember.name 18.4 1
1,407 of 34,519 Fields in Encompass 18.4 contain 'Date' Page 1 of 2   Next 407
Type Field ID Format Opts Description First Chng
Standard 78 DATE Trans Details Loan Maturity Date 18.3
Standard 109 STRING Insurance Borr MI Termination Date
Standard 118 STRING Insurance Calculation Borr MI Termination Date
Standard 363 DATE Trans Details Date APR Disclosed
Standard 415 DATE VA Date of Assignment
Standard 679 YN 2 Trans Details Dates/Num Discl Are Estimates
Standard 681 STRING Subject Property Date/Time Avail for Inspec
Standard 682 DATE Trans Details First Pymt Date
Standard 725 DATE Subject Property Warranty Program Expiration Date
Standard 745 DATE Trans Details Application Date
Standard 748 DATE Trans Details Closed Date
Standard 749 DATE Trans Details Current Status Date
Standard 761 DATE Trans Details Lock Date
Standard 763 DATE Trans Details Est Closing Date
Standard 992 DATE Trans Details Note Date
Standard 1034 DATE Subject Property Leasehold Expir Date
Standard 1038 DATE HUD Action Date
Standard 1068 DATE HUD Commit Issued Date
Standard 1078 DATE HUD Report Date
Standard 1518 DATE Subject Property Purchase Date
Standard 1885 STRING REGZ Loan Info Last Audit Date
Standard 1887 DATE REGZ Loan Info Document Signing Date
Standard 1961 DATE REGZ Construction Mortgage Final Pymt Date
Standard 1963 DATE REGZ Construction Mortgage 1st Amortization Date
Standard 1992 DATE Funding Sent to Funder Date
Standard 1994 DATE Funding Close Date
Standard 1996 DATE Funding Funds Ordered Date
Standard 1997 DATE Funding Funds Sent Date
Standard 1998 DATE Funding Collateral Sent Date
Standard 2012 DATE Shipping Investor Delivery Date
Standard 2013 DATE Shipping Target Delivery Date
Standard 2014 DATE Shipping Actual Shipping Date
Standard 2023 DATE Shipping MERS Registration Date
Standard 2025 STRING Loan Info Loan Created Date
Standard 2033 DATE Rate Lock Sell Side Investor Status Modification Date
Standard 2089 DATE Rate Lock Request Lock Date
Standard 2091 DATE Rate Lock Request Lock Expires Date
Standard 2145 DATE Rate Lock Current Lock Date
Standard 2147 DATE Rate Lock Current Lock Expires Date
Standard 2149 DATE Rate Lock Buy Side Lock Date
Standard 2151 DATE Rate Lock Buy Side Lock Expires Date
Standard 2206 DATE Rate Lock Sell Side Target Delivery Date 8.1
Standard 2220 DATE Rate Lock Sell Side Lock Date
Standard 2222 DATE Rate Lock Sell Side Lock Expires Date
Standard 2291 DATE Rate Lock Sell Side Date Locked with Investor
Standard 2297 DATE Rate Lock Sell Side Investor Delivery Date 8.1
Standard 2298 DATE Underwriting Submitted Date
Standard 2299 DATE Underwriting Resubmitted Date
Standard 2300 DATE Underwriting Credit Approval Date
Standard 2301 DATE Underwriting Approval Date
Standard 2302 DATE Underwriting Approval Expired Date
Standard 2303 DATE Underwriting Suspended Date
Standard 2304 DATE Underwriting Sign Off Date
Standard 2305 DATE Underwriting Clear to Close Date
Standard 2308 DATE Underwriting MI Ordered Date
Standard 2309 DATE Underwriting MI Received Date
Standard 2314 DATE Underwriting AUS Review Date
Standard 2317 DATE Underwriting Exception Sign Off Date
Standard 2336 DATE Underwriting Credit Received Date
Standard 2340 DATE Underwriting Date of Bankruptcy
Standard 2341 DATE Underwriting Date of Foreclosure
Standard 2352 DATE Underwriting Appraisal Ordered Date
Standard 2353 DATE Underwriting Appraisal Completed Date
Standard 2354 DATE Underwriting Appraisal Expired Date
Standard 2359 DATE Underwriting Appraisal Review Requested Date
Standard 2360 DATE Underwriting Appraisal Review Completed Date
Standard 2365 DATE Underwriting Flood Info Determination Date
Standard 2370 DATE Purchase Advice Date
Standard 2397 DATE Purchase Advice Next Payment Date
Standard 2553 DATE Closing Docs REGZ Loan Info Disbursement Date
Standard 2554 STRING Closing Docs Borr 1 Org Trust Date or Year 8.1
Standard 2592 STRING Rate Lock Request Fulfilled Date Time
Standard 2630 DATE Purchase Advice Confirmed Date
Standard 2641 DATE Closing Docs Coop Loan Proprietary Lease Date
Standard 2642 DATE Closing Docs Coop Loan Coop Assignment Lease date
Standard 2646 DATE Construction Loan Original Contract Date
Standard 2821 YN 2 Loan Info Contact Update
Standard 2823 DATE Rate Registration Date
Standard 2824 DATE Rate Registration Expiration Date
Standard 2851 DATE Closing Docs REGZ Loan Info Property Identified Date
Standard 2966 DATE Lock Request Est Closing Date
Standard 2979 DATE Closing docs Recordable Doc Trust Date
Standard 2981 DATE Underwriting Date Sent to
Standard 2987 DATE Underwriting Denied Date
Standard 2989 DATE Underwriting Different Approved Date
Standard 2990 DATE Underwriting Different Approval Expired Date
Standard 3039 STRING Lock Request Field For Pricing Updated
Standard 3042 DATE Lock Request Date Case Number Assigned
Standard 3054 DATE Trans Details First Pymt Adj Date
Standard 3057 DATE FHA Management Last Refi Date
Standard 3058 DATE FHA Management Previous Purchase Date
Standard 3060 DATE FHA Management Address Validation Date
Standard 3061 STRING FHA Management Address Validated By
Standard 3064 DATE FHA Management Refi Authorization Date
Standard 3067 DATE FHA Management Obtain CAIVRS Date
Standard 3069 DATE FHA Management LDP/GSA Search Date
Standard 3071 DATE FHA Management Total Scorecard Date
Standard 3073 DATE FHA Management Condo Pud Lookup Date
Standard 3076 DATE FHA Management Appraisal Logged Date
Standard 3078 DATE FHA Management UFMIP Remittance Due Date
Standard 3079 DATE FHA Management UFMIP Remitted Date
Standard 3083 DATE FHA Management MIP 1st Due Date
Standard 3084 DATE FHA Management MIP Periodic Remitted Date
Standard 3086 DATE FHA Management MI Applied Date
Standard 3088 DATE FHA Management MI Rejected Date
Standard 3089 DATE FHA Management MIC Retrived Date
Standard 3090 DATE FHA Management Case Binder Shipped Date
Standard 3092 DATE FHA Management Serving Transfered Date
Standard 3094 DATE Mortgage Loan Commitment Date
Standard 3122 DATE Rans Details Disclosed Date
Standard 3137 DATE GFE Last Disclosed Date
Standard 3140 DATE GFE Expiration Date
Standard 3142 DATE Application Date 15.2
Standard 3143 DATE Initial Disclosure Due Date
Standard 3144 DATE Initial Disclosure Provided Date
Standard 3145 DATE Earliest Fee Collection Date
Standard 3146 DATE Fee Collected Date
Standard 3147 DATE Earliest Closing Date
Standard 3148 DATE GFE Initial GFE Disclosure Provided Date
Standard 3149 DATE GFE Initial GFE Disclosure Received Date
Standard 3150 DATE GFE Redisclosure Provided Date
Standard 3151 DATE GFE Redisclosure Received Date
Standard 3152 DATE TIL Intl Disclosure Provided Date
Standard 3153 DATE TIL Intl TIL Disclosure Rcvd Date
Standard 3154 DATE TIL Redisclosure Provided Date
Standard 3155 DATE TIL Redisclosure Rcvd Date
Standard 3156 DATE Last CD Sent Date 15.1
Standard 3161 DATE Rate Lock GFE Due Date
Standard 3163 DATE GFE Last Disclosure Rcvd Date
Standard 3165 DATE Changed Circumstance Rcvd Date 15.1
Standard 3167 DATE Revised GFE Due Date
Standard 3170 DATE GFE Date for Printed Form
Standard 3171 DATE HUD-1 Tolerance Resolution Date
Standard 3176 DATE HUD 1003 Addendum Date Mtg Approved
Standard 3177 DATE HUD 1003 Addendum Date Approval Expires
Standard 3197 DATE Borrower Intent to Continue Date
Standard 3200 DATETIME Trans Details Lock Date Modification Timestamp
Standard 3247 DATE TIL Last Disclosed Borrower Received Date
Standard 3253 DATE Last Rate Set Date
Standard 3254 DATE Rate Lock Request Last Rate Set Date
Standard 3255 DATE Rate Lock Current Lock Last Rate Set Date
Standard 3256 DATE Rate Lock Buy Side Last Rate Set Date
Standard 3257 DATE Rate Lock Sell Side Last Rate Set Date
Standard 3259 DATE Rate Lock Disclosure Date 14.2
Standard 3260 DATE Closing Date for Billing Purposes
Standard 3261 DATE Closing Docs 1003 Signature Date
Standard 3269 DATE REGZ-TIL Interest Rate and Payment Summary Table - First Adjustment Date
Standard 3274 DATE REGZ-TIL Interest Rate and Payment Summary Table - Maximum During First 5 Years - Adjustment Date
Standard 3280 DATE REGZ-TIL Interest Rate and Payment Summary Table - Maximum Ever - Adjustment Date
Standard 3287 DATE REGZ-TIL Interest Rate and Payment Summary Table - Construction - Due Date
Standard 3292 DATE TIL Application Date
Standard 3312 DATE Repurchase Date
Standard 3337 DATE Date Sold to Third Party
Standard 3341 DATE Date Warehoused
Standard 3358 DATE Rate Lock Buy Side Lock Expires Date
Standard 3359 DATE Rate Lock Sell Side Lock Expires Date
Standard 3361 DATE Rate Lock Request Extended Lock Expires Date
Standard 3364 DATE Rate Lock Buy Side Extended Lock Expires Date
Standard 3367 DATE Rate Lock Sell Side Extended Lock Expires Date
Standard 3369 DATE Rate Lock Request Original Lock Expires Date
Standard 3372 DATE Rate Lock Buy Side Corporate Concession Approval Date
Standard 3376 DATE Rate Lock Buy Side Branch Concession Approval Date
Standard 3432 DATE FHA Management Refi Authorization Prior Endorsement Date
Standard 3514 DATE Purchase Advice Date First Payment to Investor 8.1
Standard 3544 DATE GFE Initial GFE Disclosure Affiliated Business Disclosure Provided Date 8.1
Standard 3545 DATE GFE Initial GFE Disclosure CHARM Booklet Provided Date 8.1
Standard 3546 DATE GFE Initial GFE Disclosure HUD Special Booklet Provided Date 8.1
Standard 3547 DATE GFE Initial GFE Disclosure HELOC Brochure Provided Date 8.1
Standard 3548 DATE PMI Midpoint Cancelation Date 8.1
Standard 3567 DATE Correspondent Purchase Advice Date 8.1
Standard 3569 DATE Correspondent Purchase Advice Paid to Date 8.1
Standard 3570 DATE Correspondent Purchase Advice First Payment Date 8.1
Standard 3613 DATE Correspondent Purchase Advice Confirmed Date 8.1
Standard 3622 DATE Rate Lock Request Lock Cancellation Date 8.1
Standard 3624 DATE Date the Appraisal was provided to the Borrower 8.1
Standard 3663 DATE Rate Lock Comparison Last Rate Set Date 9.1
Standard 3664 DATE Rate Lock Comparison Lock Date 9.1
Standard 3666 DATE Rate Lock Comparison Lock Expires Date 9.1
Standard 3670 YN 2 Milestone Dates Mode 9.1
Standard 3853 DATE Sec 35 HPML Prior Acquisition Date 9.1
Standard 3855 DATE Sec 35 HPML Sales Contract Date 9.1
Standard 3857 DATE Date the Subsequent Appraisal Provided to the Borrower 9.1
Standard 3858 DATE Date the AVM Provided to the Borrower 9.1
Standard 3859 DATE Date the Home Counseling Disclosure Provided to the Borrower 9.1
Standard 3909 DATE Rate Lock BuySide Commitment Date 15.1
Standard 3912 DATE Rate Lock BuySide Expiration Date 15.1
Standard 3913 DATE Rate Lock BuySide Delivery Expiration Date 15.1
Standard 3917 DATE Correspondent Loan Status - Received Date 15.1
Standard 3918 DATE Correspondent Loan Status - Purchase Suspense Date 15.1 17.1
Standard 3919 DATE Correspondent Loan Status - Latest Conds Issued Date 15.1 17.1 17.3
Standard 3920 DATE Correspondent Loan Status - Purchase Approval Date 15.1 17.1
Standard 3921 DATE Correspondent Loan Status - Cleared for Purchase Date 15.1 17.1
Standard 3922 DATE Correspondent Loan Status - Purchase Date 15.1 17.1
Standard 3925 DATE Correspondent Loan Status - Note Date 15.1
Standard 3926 DATE Correspondent Loan Status - Delivery Expiration Date 15.1
Standard 3940 DATE Correspondent Loan Status - Rejected Date 15.1
Standard 3956 DATE Correspondent Purchase Advice Warehouse Bank Bailee Expiration Date 15.1
Standard 3972 DATE LE Intent To Proceed Sent On Date 15.1
Standard 3977 DATE Closing Disclosure Sent Date 15.1
Standard 3978 DATE Closing Disclosure Received Date 15.1
Standard 3979 DATE Revised Closing Disclosure sent date 15.1
Standard 3980 DATE Revised Closing Disclosure received date 15.1
Standard 3981 DATE Post Consummation Disclosure Sent Date 15.1
Standard 3982 DATE Post Consummation Disclosure Received Date 15.1
Standard 3983 DATE eConsent Date 15.1 15.2
Standard 3985 DATE eConsent Borrower Date Accepted Pair 1 15.1 15.2
Standard 3989 DATE eConsent Co-Borrower Date Accepted Pair 1 15.1 15.2
Standard 3993 DATE eConsent Borrower Date Accepted Pair 2 15.1 15.2
Standard 3997 DATE eConsent Co-Borrower Date Accepted Pair 2 15.1 15.2
Standard 4014 DATE Settlement Services Provider List Sent Date 15.1
Standard 4015 DATE Safe Harbor Sent Date 15.1
Standard 4016 DATE Rate Lock Sell Side Commitment Date 15.1
Standard 4022 DATE The Date that the High Cost Disclosure is signed 15.1
Standard 4024 DATE eConsent Borrower Date Accepted Pair 3 15.1 15.2
Standard 4028 DATE eConsent Co-Borrower Date Accepted Pair 3 15.1 15.2
Standard 4032 DATE eConsent Borrower Date Accepted Pair 4 15.1 15.2
Standard 4036 DATE eConsent Co-Borrower Date Accepted Pair 4 15.1 15.2
Standard 4040 DATE eConsent Borrower Date Accepted Pair 5 15.1 15.2
Standard 4044 DATE eConsent Co-Borrower Date Accepted Pair 5 15.1 15.2
Standard 4048 DATE eConsent Borrower Date Accepted Pair 6 15.1 15.2
Standard 4052 DATE eConsent Co-Borrower Date Accepted Pair 6 15.1 15.2
Standard 4069 DATE Rate Lock Request ONRP Lock Date 15.2
Standard 4070 DATE Rate Lock Buy Side ONRP Lock Date 15.2
Standard 4074 DATE Borr Date Authorized Credit Report 15.2
Standard 4077 DATE Co-Borrower Date Authorized Credit Report 15.2
Standard 4080 DATE Occupancy Cert Date 15.2
Standard 4082 YN 2 Is CD Valid for Earliest Closing Date Calculation 15.2
Standard 4096 DATE Borr Info Outstanding Mtg Principal Date 16.3
Standard 4108 DATE Borrower Consent Request Date 16.3.2
Standard 4109 DATE Co-Borrower Consent Request Date 16.3.2
Standard 4110 DATE Correspondent Loan Status - Grace Period Start Date 17.1
Standard 4111 STRING Correspondent Loan Status - Grace Period Start Trigger Date 17.1
Standard 4112 STRING Correspondent Loan Status - Late Days End Trigger Date 17.1
Standard 4114 DATE Borrower Est Closing Date 16.3.2
Standard 4119 DATE Correspondent Loan Status - Submitted for Review Date 17.1 17.3
Standard 4120 DATE Correspondent Loan Status - Withdrawn Date 17.1
Standard 4207 DATE Correspondent Loan Status - Cancelled Date 17.4
Standard 4208 DATE Correspondent Loan Status - Voided Date 17.4
Standard 4241 DATE The date of the prior mortgage as recorded 17.4
Standard 4242 DATE Correspondent Loan Status - Withdrawal Requested Date 17.4
Standard 4457 DATE Underwriting Counter Offer Date 18.2
Standard 4498 DATETIME Last Fee Import Date to Support Data Imports 18.4
Standard AEA0001 STRING Itemize Escrow Payment Date 8.1
Standard AR0061 DATE IRS4506 Record - Last Updated Date 8.1
Standard AR0062 STRING IRS4506 Record - Last Updated Time 8.1
Standard AR0099 INTEGER IRS4506 Record - Last Updated History Record 8.1
Standard AUS.X131 DATE AUS Tracking - Freddie Mac - LP Assmt. Exp. Date 9.1 16.1
Standard AUS.X168 STRING AUS Tracking - Freddie Mac - Date Time Requested 9.1 16.1
Standard AUS.X169 STRING AUS Tracking - Freddie Mac - Date Time Assessed 9.1 16.1
Standard AUS.X177 DATETIME AUS Tracking - Freddie Mac LQA - Submission DateTime 16.2
Standard AUS.X3 DATE AUS Tracking - Submission Date 9.1
Standard AUS.X4 DATE AUS Tracking - First Submission Date 9.1
Standard AUS.X87 DATE AUS Tracking - Fannie Mae - Credit Report Date 1 9.1 16.1
Standard AUS.X91 DATE AUS Tracking - Fannie Mae - Credit Report Date 2 9.1 16.1
Standard AUSF.X19 DATE AUS Data Discrepency Resolution Date 9.1
Standard AUSF.X7 DATE AUS Tracking - Latest Submission - Submission Date 9.1
Standard AUSF.X9 DATE AUS Tracking - Latest Submission - First Submission Date 9.1
Virtual AUSTRACKING.AUS.X131 DATE Last Snapshot - AUS Tracking - Freddie Mac - LP Assmt. Exp. Date 15.1 15.2 16.1
Virtual AUSTRACKING.AUS.X168 STRING Last Snapshot - AUS Tracking - Freddie Mac - Date Time Requested 15.1 15.2 16.1
Virtual AUSTRACKING.AUS.X169 STRING Last Snapshot - AUS Tracking - Freddie Mac - Date Time Assessed 15.1 15.2 16.1
Virtual AUSTRACKING.AUS.X177 DATETIME Last Snapshot - AUS Tracking - Freddie Mac LQA - Submission DateTime 16.2
Virtual AUSTRACKING.AUS.X3 DATE Last Snapshot - AUS Tracking - Submission Date 9.1 15.1 15.2 16.1
Virtual AUSTRACKING.AUS.X4 DATE Last Snapshot - AUS Tracking - First Submission Date 9.1 15.1 15.2 16.1
Virtual AUSTRACKING.AUS.X87 DATE Last Snapshot - AUS Tracking - Fannie Mae - Credit Report Date 1 15.1 15.2 16.1
Virtual AUSTRACKING.AUS.X91 DATE Last Snapshot - AUS Tracking - Fannie Mae - Credit Report Date 2 15.1 15.2 16.1
Standard BE0011 DATE Borr Employer Date Hired
Standard BE0014 DATE Borr Employer Date Terminated
Standard BE0098 DATE Borr Employer Request Date
Standard BR0098 DATE Borr Residence Request Date
Standard CAPIAP.X55 DATE HUD Property Improve Lease Exp Date
Standard CD1.X1 DATE Closing Disclosure - CD Date Issued 15.1
Standard CD1.X47 DATE Last CD Sent Date 15.1
Standard CD1.X51 DATE Closing Disclosure - Disclosure Received Date 15.1
Standard CD1.X62 DATE CD Changed Circumstance Rcvd Date 15.1
Standard CD1.X63 DATE Closing Disclosure - Revised CD Due Date 15.1
Standard CD1.X73 DATE Closing Disclosure - Initial CD Received Date 17.2
Standard CD1.X74 DATE Closing Disclosure - Revised CD Received Date 17.2
Standard CD3.X1003 DATE Closing Disclosure Page 3 - Adjustments for Items Paid by Seller in Advance Other (line 16) - Fee Date From - Line 10 16.2
Standard CD3.X1004 DATE Closing Disclosure Page 3 - Adjustments for Items Paid by Seller in Advance Other (line 16) - Fee Date To - Line 10 16.2
Standard CD3.X1008 DATE Closing Disclosure Page 3 - Adjustments for Items Paid by Seller in Advance Other (line 16) - Fee Date From - Line 11 16.2
Standard CD3.X1009 DATE Closing Disclosure Page 3 - Adjustments for Items Paid by Seller in Advance Other (line 16) - Fee Date To - Line 11 16.2
Standard CD3.X1013 DATE Closing Disclosure Page 3 - Adjustments for Items Paid by Seller in Advance Other (line 16) - Fee Date From - Line 12 16.2
Standard CD3.X1014 DATE Closing Disclosure Page 3 - Adjustments for Items Paid by Seller in Advance Other (line 16) - Fee Date To - Line 12 16.2
Standard CD3.X1018 DATE Closing Disclosure Page 3 - Adjustments for Items Paid by Seller in Advance Other (line 16) - Fee Date From - Line 13 16.2
Standard CD3.X1019 DATE Closing Disclosure Page 3 - Adjustments for Items Paid by Seller in Advance Other (line 16) - Fee Date To - Line 13 16.2
Standard CD3.X1023 DATE Closing Disclosure Page 3 - Adjustments for Items Paid by Seller in Advance Other (line 16) - Fee Date From - Line 14 16.2
Standard CD3.X1024 DATE Closing Disclosure Page 3 - Adjustments for Items Paid by Seller in Advance Other (line 16) - Fee Date To - Line 14 16.2
Standard CD3.X1028 DATE Closing Disclosure Page 3 - Adjustments for Items Paid by Seller in Advance Other (line 16) - Fee Date From - Line 15 16.2
Standard CD3.X1029 DATE Closing Disclosure Page 3 - Adjustments for Items Paid by Seller in Advance Other (line 16) - Fee Date To - Line 15 16.2
Standard CD3.X1033 DATE Closing Disclosure Page 3 - Adjustments for Items Paid by Seller in Advance Other (line 16) - Fee Date From - Line 16 16.2
Standard CD3.X1034 DATE Closing Disclosure Page 3 - Adjustments for Items Paid by Seller in Advance Other (line 16) - Fee Date To - Line 16 16.2
Standard CD3.X1038 DATE Closing Disclosure Page 3 - Adjustments for Items Paid by Seller in Advance Other (line 16) - Fee Date From - Line 17 16.2
Standard CD3.X1039 DATE Closing Disclosure Page 3 - Adjustments for Items Paid by Seller in Advance Other (line 16) - Fee Date To - Line 17 16.2
Standard CD3.X1043 DATE Closing Disclosure Page 3 - Adjustments for Items Paid by Seller in Advance Other (line 16) - Fee Date From - Line 18 16.2
Standard CD3.X1044 DATE Closing Disclosure Page 3 - Adjustments for Items Paid by Seller in Advance Other (line 16) - Fee Date To - Line 18 16.2
Standard CD3.X1234 DATE Closing Disclosure Page 3 - Adjustments for Items Unpaid by Seller (line 17) - Fee Date From - Line 01 16.2
Standard CD3.X1235 DATE Closing Disclosure Page 3 - Adjustments for Items Unpaid by Seller (line 17) - Fee Date To - Line 01 16.2
Standard CD3.X1324 DATE Closing Disclosure Page 3 - Adjustments for Items Unpaid by Seller (line 18) - Fee Date From - Line 01 16.2
Standard CD3.X1325 DATE Closing Disclosure Page 3 - Adjustments for Items Unpaid by Seller (line 18) - Fee Date To - Line 01 16.2
Standard CD3.X1414 DATE Closing Disclosure Page 3 - Adjustments for Items Unpaid by Seller (line 19) - Fee Date From - Line 01 16.2
Standard CD3.X1415 DATE Closing Disclosure Page 3 - Adjustments for Items Unpaid by Seller (line 19) - Fee Date To - Line 01 16.2
Standard CD3.X1419 DATE Closing Disclosure Page 3 - Adjustments for Items Unpaid by Seller (line 19) - Fee Date From - Line 02 16.2
Standard CD3.X1420 DATE Closing Disclosure Page 3 - Adjustments for Items Unpaid by Seller (line 19) - Fee Date To - Line 02 16.2
Standard CD3.X1424 DATE Closing Disclosure Page 3 - Adjustments for Items Unpaid by Seller (line 19) - Fee Date From - Line 03 16.2
Standard CD3.X1425 DATE Closing Disclosure Page 3 - Adjustments for Items Unpaid by Seller (line 19) - Fee Date To - Line 03 16.2
Standard CD3.X1429 DATE Closing Disclosure Page 3 - Adjustments for Items Unpaid by Seller (line 19) - Fee Date From - Line 04 16.2
Standard CD3.X1430 DATE Closing Disclosure Page 3 - Adjustments for Items Unpaid by Seller (line 19) - Fee Date To - Line 04 16.2
Standard CD3.X1434 DATE Closing Disclosure Page 3 - Adjustments for Items Unpaid by Seller (line 19) - Fee Date From - Line 05 16.2
Standard CD3.X1435 DATE Closing Disclosure Page 3 - Adjustments for Items Unpaid by Seller (line 19) - Fee Date To - Line 05 16.2
Standard CD3.X1439 DATE Closing Disclosure Page 3 - Adjustments for Items Unpaid by Seller (line 19) - Fee Date From - Line 06 16.2
Standard CD3.X1440 DATE Closing Disclosure Page 3 - Adjustments for Items Unpaid by Seller (line 19) - Fee Date To - Line 06 16.2
Standard CD3.X1444 DATE Closing Disclosure Page 3 - Adjustments for Items Unpaid by Seller (line 19) - Fee Date From - Line 07 16.2
Standard CD3.X1445 DATE Closing Disclosure Page 3 - Adjustments for Items Unpaid by Seller (line 19) - Fee Date To - Line 07 16.2
Standard CD3.X1449 DATE Closing Disclosure Page 3 - Adjustments for Items Unpaid by Seller (line 19) - Fee Date From - Line 08 16.2
Standard CD3.X1450 DATE Closing Disclosure Page 3 - Adjustments for Items Unpaid by Seller (line 19) - Fee Date To - Line 08 16.2
Standard CD3.X1454 DATE Closing Disclosure Page 3 - Adjustments for Items Unpaid by Seller (line 19) - Fee Date From - Line 09 16.2
Standard CD3.X1455 DATE Closing Disclosure Page 3 - Adjustments for Items Unpaid by Seller (line 19) - Fee Date To - Line 09 16.2
Standard CD3.X1459 DATE Closing Disclosure Page 3 - Adjustments for Items Unpaid by Seller (line 19) - Fee Date From - Line 10 16.2
Standard CD3.X1460 DATE Closing Disclosure Page 3 - Adjustments for Items Unpaid by Seller (line 19) - Fee Date To - Line 10 16.2
Standard CD3.X1464 DATE Closing Disclosure Page 3 - Adjustments for Items Unpaid by Seller (line 19) - Fee Date From - Line 11 16.2
Standard CD3.X1465 DATE Closing Disclosure Page 3 - Adjustments for Items Unpaid by Seller (line 19) - Fee Date To - Line 11 16.2
Standard CD3.X1469 DATE Closing Disclosure Page 3 - Adjustments for Items Unpaid by Seller (line 19) - Fee Date From - Line 12 16.2
Standard CD3.X1470 DATE Closing Disclosure Page 3 - Adjustments for Items Unpaid by Seller (line 19) - Fee Date To - Line 12 16.2
Standard CD3.X1474 DATE Closing Disclosure Page 3 - Adjustments for Items Unpaid by Seller (line 19) - Fee Date From - Line 13 16.2
Standard CD3.X1475 DATE Closing Disclosure Page 3 - Adjustments for Items Unpaid by Seller (line 19) - Fee Date To - Line 13 16.2
Standard CD3.X1479 DATE Closing Disclosure Page 3 - Adjustments for Items Unpaid by Seller (line 19) - Fee Date From - Line 14 16.2
Standard CD3.X1480 DATE Closing Disclosure Page 3 - Adjustments for Items Unpaid by Seller (line 19) - Fee Date To - Line 14 16.2
Standard CD3.X1484 DATE Closing Disclosure Page 3 - Adjustments for Items Unpaid by Seller (line 19) - Fee Date From - Line 15 16.2
Standard CD3.X1485 DATE Closing Disclosure Page 3 - Adjustments for Items Unpaid by Seller (line 19) - Fee Date To - Line 15 16.2
Standard CD3.X1489 DATE Closing Disclosure Page 3 - Adjustments for Items Unpaid by Seller (line 19) - Fee Date From - Line 16 16.2
Standard CD3.X1490 DATE Closing Disclosure Page 3 - Adjustments for Items Unpaid by Seller (line 19) - Fee Date To - Line 16 16.2
Standard CD3.X1494 DATE Closing Disclosure Page 3 - Adjustments for Items Unpaid by Seller (line 19) - Fee Date From - Line 17 16.2
Standard CD3.X1495 DATE Closing Disclosure Page 3 - Adjustments for Items Unpaid by Seller (line 19) - Fee Date To - Line 17 16.2
Standard CD3.X1499 DATE Closing Disclosure Page 3 - Adjustments for Items Unpaid by Seller (line 19) - Fee Date From - Line 18 16.2
Standard CD3.X1500 DATE Closing Disclosure Page 3 - Adjustments for Items Unpaid by Seller (line 19) - Fee Date To - Line 18 16.2
Standard CD3.X264 DATE Closing Disclosure Page 3 - Due from Borrower at Closing (line 11) - Fee Date From 16.2
Standard CD3.X265 DATE Closing Disclosure Page 3 - Due from Borrower at Closing (line 11) - Fee Date To 16.2
Standard CD3.X267 DATE Closing Disclosure Page 3 - Due from Borrower at Closing (line 12) - Fee Date From 16.2
Standard CD3.X268 DATE Closing Disclosure Page 3 - Due from Borrower at Closing (line 12) - Fee Date To 16.2
Standard CD3.X270 DATE Closing Disclosure Page 3 - Due from Borrower at Closing (line 13) - Fee Date From 16.2
Standard CD3.X271 DATE Closing Disclosure Page 3 - Due from Borrower at Closing (line 13) - Fee Date To 16.2
Standard CD3.X273 DATE Closing Disclosure Page 3 - Due from Borrower at Closing (line 14) - Fee Date From 16.2
Standard CD3.X274 DATE Closing Disclosure Page 3 - Due from Borrower at Closing (line 14) - Fee Date To 16.2
Standard CD3.X276 DATE Closing Disclosure Page 3 - Due from Borrower at Closing (line 15) - Fee Date From 16.2
Standard CD3.X277 DATE Closing Disclosure Page 3 - Due from Borrower at Closing (line 15) - Fee Date To 16.2
Standard CD3.X347 DATE Closing Disclosure Page 3 - Adjustments for Items Unpaid by Seller (line 15) - Fee Date From 16.2
Standard CD3.X348 DATE Closing Disclosure Page 3 - Adjustments for Items Unpaid by Seller (line 15) - Fee Date To 16.2
Standard CD3.X350 DATE Closing Disclosure Page 3 - Adjustments for Items Unpaid by Seller (line 16) - Fee Date From 16.2
Standard CD3.X351 DATE Closing Disclosure Page 3 - Adjustments for Items Unpaid by Seller (line 16) - Fee Date To 16.2
Standard CD3.X355 DATE Closing Disclosure Page 3 - Adjustments for Items Unpaid by Seller (line 18) - Fee Date From - Line 1 16.2
Standard CD3.X356 DATE Closing Disclosure Page 3 - Adjustments for Items Unpaid by Seller (line 18) - Fee Date To - Line 1 16.2
Standard CD3.X360 DATE Closing Disclosure Page 3 - Adjustments for Items Unpaid by Seller (line 18) - Fee Date From - Line 2 16.2
Standard CD3.X361 DATE Closing Disclosure Page 3 - Adjustments for Items Unpaid by Seller (line 18) - Fee Date To - Line 2 16.2
Standard CD3.X365 DATE Closing Disclosure Page 3 - Adjustments for Items Unpaid by Seller (line 18) - Fee Date From - Line 3 16.2
Standard CD3.X366 DATE Closing Disclosure Page 3 - Adjustments for Items Unpaid by Seller (line 18) - Fee Date To - Line 3 16.2
Standard CD3.X370 DATE Closing Disclosure Page 3 - Adjustments for Items Unpaid by Seller (line 18) - Fee Date From - Line 4 16.2
Standard CD3.X371 DATE Closing Disclosure Page 3 - Adjustments for Items Unpaid by Seller (line 18) - Fee Date To - Line 4 16.2
Standard CD3.X375 DATE Closing Disclosure Page 3 - Adjustments for Items Unpaid by Seller (line 17) - Fee Date From - Line 5 16.2
Standard CD3.X376 DATE Closing Disclosure Page 3 - Adjustments for Items Unpaid by Seller (line 17) - Fee Date To - Line 5 16.2
Standard CD3.X380 DATE Closing Disclosure Page 3 - Adjustments for Items Unpaid by Seller (line 17) - Fee Date From - Line 6 16.2
Standard CD3.X381 DATE Closing Disclosure Page 3 - Adjustments for Items Unpaid by Seller (line 17) - Fee Date To - Line 6 16.2
Standard CD3.X385 DATE Closing Disclosure Page 3 - Adjustments for Items Unpaid by Seller (line 17) - Fee Date From - Line 7 16.2
Standard CD3.X386 DATE Closing Disclosure Page 3 - Adjustments for Items Unpaid by Seller (line 17) - Fee Date To - Line 7 16.2
Standard CD3.X390 DATE Closing Disclosure Page 3 - Adjustments for Items Unpaid by Seller (line 17) - Fee Date From - Line 8 16.2
Standard CD3.X391 DATE Closing Disclosure Page 3 - Adjustments for Items Unpaid by Seller (line 17) - Fee Date To - Line 8 16.2
Standard CD3.X395 DATE Closing Disclosure Page 3 - Adjustments for Items Unpaid by Seller (line 17) - Fee Date From - Line 9 16.2
Standard CD3.X396 DATE Closing Disclosure Page 3 - Adjustments for Items Unpaid by Seller (line 17) - Fee Date To - Line 9 16.2
Standard CD3.X400 DATE Closing Disclosure Page 3 - Adjustments for Items Unpaid by Seller (line 17) - Fee Date From - Line 10 16.2
Standard CD3.X401 DATE Closing Disclosure Page 3 - Adjustments for Items Unpaid by Seller (line 17) - Fee Date To - Line 10 16.2
Standard CD3.X405 DATE Closing Disclosure Page 3 - Adjustments for Items Unpaid by Seller (line 17) - Fee Date From - Line 11 16.2
Standard CD3.X406 DATE Closing Disclosure Page 3 - Adjustments for Items Unpaid by Seller (line 17) - Fee Date To - Line 11 16.2
Standard CD3.X410 DATE Closing Disclosure Page 3 - Adjustments for Items Unpaid by Seller (line 17) - Fee Date From - Line 12 16.2
Standard CD3.X411 DATE Closing Disclosure Page 3 - Adjustments for Items Unpaid by Seller (line 17) - Fee Date To - Line 12 16.2
Standard CD3.X415 DATE Closing Disclosure Page 3 - Adjustments for Items Unpaid by Seller (line 17) - Fee Date From - Line 13 16.2
Standard CD3.X416 DATE Closing Disclosure Page 3 - Adjustments for Items Unpaid by Seller (line 17) - Fee Date To - Line 13 16.2
Standard CD3.X420 DATE Closing Disclosure Page 3 - Adjustments for Items Unpaid by Seller (line 17) - Fee Date From - Line 14 16.2
Standard CD3.X421 DATE Closing Disclosure Page 3 - Adjustments for Items Unpaid by Seller (line 17) - Fee Date To - Line 14 16.2
Standard CD3.X425 DATE Closing Disclosure Page 3 - Adjustments for Items Unpaid by Seller (line 17) - Fee Date From - Line 15 16.2
Standard CD3.X426 DATE Closing Disclosure Page 3 - Adjustments for Items Unpaid by Seller (line 17) - Fee Date To - Line 15 16.2
Standard CD3.X430 DATE Closing Disclosure Page 3 - Adjustments for Items Unpaid by Seller (line 17) - Fee Date From - Line 16 16.2
Standard CD3.X431 DATE Closing Disclosure Page 3 - Adjustments for Items Unpaid by Seller (line 17) - Fee Date To - Line 16 16.2
Standard CD3.X435 DATE Closing Disclosure Page 3 - Adjustments for Items Unpaid by Seller (line 17) - Fee Date From - Line 17 16.2
Standard CD3.X436 DATE Closing Disclosure Page 3 - Adjustments for Items Unpaid by Seller (line 17) - Fee Date To - Line 17 16.2
Standard CD3.X440 DATE Closing Disclosure Page 3 - Adjustments for Items Unpaid by Seller (line 17) - Fee Date From - Line 18 16.2
Standard CD3.X441 DATE Closing Disclosure Page 3 - Adjustments for Items Unpaid by Seller (line 17) - Fee Date To - Line 18 16.2
Standard CD3.X598 DATE Closing Disclosure Page 3 - Adjustments for Items Paid by Seller in Advance Other (line 12) - Fee Date From - Line 01 16.2
Standard CD3.X599 DATE Closing Disclosure Page 3 - Adjustments for Items Paid by Seller in Advance Other (line 12) - Fee Date To - Line 01 16.2
Standard CD3.X688 DATE Closing Disclosure Page 3 - Adjustments for Items Paid by Seller in Advance Other (line 13) - Fee Date From - Line 01 16.2
Standard CD3.X689 DATE Closing Disclosure Page 3 - Adjustments for Items Paid by Seller in Advance Other (line 13) - Fee Date To - Line 01 16.2
Standard CD3.X778 DATE Closing Disclosure Page 3 - Adjustments for Items Paid by Seller in Advance Other (line 14) - Fee Date From - Line 01 16.2
Standard CD3.X779 DATE Closing Disclosure Page 3 - Adjustments for Items Paid by Seller in Advance Other (line 14) - Fee Date To - Line 01 16.2
Standard CD3.X868 DATE Closing Disclosure Page 3 - Adjustments for Items Paid by Seller in Advance Other (line 15) - Fee Date From - Line 01 16.2
Standard CD3.X869 DATE Closing Disclosure Page 3 - Adjustments for Items Paid by Seller in Advance Other (line 15) - Fee Date To - Line 01 16.2
Standard CD3.X958 DATE Closing Disclosure Page 3 - Adjustments for Items Paid by Seller in Advance Other (line 16) - Fee Date From - Line 01 16.2
Standard CD3.X959 DATE Closing Disclosure Page 3 - Adjustments for Items Paid by Seller in Advance Other (line 16) - Fee Date To - Line 01 16.2
Standard CD3.X963 DATE Closing Disclosure Page 3 - Adjustments for Items Paid by Seller in Advance Other (line 16) - Fee Date From - Line 02 16.2
Standard CD3.X964 DATE Closing Disclosure Page 3 - Adjustments for Items Paid by Seller in Advance Other (line 16) - Fee Date To - Line 02 16.2
Standard CD3.X968 DATE Closing Disclosure Page 3 - Adjustments for Items Paid by Seller in Advance Other (line 16) - Fee Date From - Line 03 16.2
Standard CD3.X969 DATE Closing Disclosure Page 3 - Adjustments for Items Paid by Seller in Advance Other (line 16) - Fee Date To - Line 03 16.2
Standard CD3.X973 DATE Closing Disclosure Page 3 - Adjustments for Items Paid by Seller in Advance Other (line 16) - Fee Date From - Line 04 16.2
Standard CD3.X974 DATE Closing Disclosure Page 3 - Adjustments for Items Paid by Seller in Advance Other (line 16) - Fee Date To - Line 04 16.2
Standard CD3.X978 DATE Closing Disclosure Page 3 - Adjustments for Items Paid by Seller in Advance Other (line 16) - Fee Date From - Line 05 16.2
Standard CD3.X979 DATE Closing Disclosure Page 3 - Adjustments for Items Paid by Seller in Advance Other (line 16) - Fee Date To - Line 05 16.2
Standard CD3.X983 DATE Closing Disclosure Page 3 - Adjustments for Items Paid by Seller in Advance Other (line 16) - Fee Date From - Line 06 16.2
Standard CD3.X984 DATE Closing Disclosure Page 3 - Adjustments for Items Paid by Seller in Advance Other (line 16) - Fee Date To - Line 06 16.2
Standard CD3.X988 DATE Closing Disclosure Page 3 - Adjustments for Items Paid by Seller in Advance Other (line 16) - Fee Date From - Line 07 16.2
Standard CD3.X989 DATE Closing Disclosure Page 3 - Adjustments for Items Paid by Seller in Advance Other (line 16) - Fee Date To - Line 07 16.2
Standard CD3.X993 DATE Closing Disclosure Page 3 - Adjustments for Items Paid by Seller in Advance Other (line 16) - Fee Date From - Line 08 16.2
Standard CD3.X994 DATE Closing Disclosure Page 3 - Adjustments for Items Paid by Seller in Advance Other (line 16) - Fee Date To - Line 08 16.2
Standard CD3.X998 DATE Closing Disclosure Page 3 - Adjustments for Items Paid by Seller in Advance Other (line 16) - Fee Date From - Line 09 16.2
Standard CD3.X999 DATE Closing Disclosure Page 3 - Adjustments for Items Paid by Seller in Advance Other (line 16) - Fee Date To - Line 09 16.2
Standard CE0011 DATE Co-Borr Employer Date Hired
Standard CE0014 DATE Co-Borr Employer Date Terminated
Standard CE0098 DATE Co-Borr Employer Request Date
Standard CL.WF.EVNT.CLRTOCLOS DATETIME Title Closing Disclosure - Clear to Close Status Received by Lender Date Time 17.4
Standard CL.WF.EVNT.CODRACCP DATETIME Title Closing Disclosure - Closing + Escrow Order Accepted Date Time 17.4
Standard CL.WF.EVNT.CODRSENT DATETIME Title Closing Disclosure - Closing + Escrow Order Sent Date Time 17.4
Standard CL.WF.EVNT.FINLCDSENT DATETIME Title Closing Disclosure - Final CD Sent Date Time 17.4
Standard CL.WF.EVNT.FINLTITLPLCY DATETIME Title Closing Disclosure - Final Title Policy Date Time 17.4
Standard CL.WF.EVNT.INIDSCLO DATETIME Title Closing Disclosure - Draft Closing Disclosure Received by the Lender Date Time 17.4
Standard CL.WF.EVNT.ODRPAYOFF DATETIME Title Closing Disclosure - Payoffs Requested Date Time 17.4
Standard CL.WF.EVNT.ODRQOTEACCP DATETIME Title Closing Disclosure - Last Fee Quote Received Date Time 17.4
Standard CL.WF.EVNT.ODRQUOTE DATETIME Title Closing Disclosure - Last Fee Quote Requested Date Time 17.4
Standard CL.WF.EVNT.PRELIMRECV DATETIME Title Closing Disclosure - Prelim / Commitment Received by the Lender Date Time 17.4
Standard CL.WF.EVNT.TODRACCP DATETIME Title Closing Disclosure - Title Order Accepted Date Time 17.4
Standard CL.WF.EVNT.TODRSENT DATETIME Title Closing Disclosure - Title Order Sent Date Time 17.4
Standard CLOSING.EXECLOSDOCEXPRDT STRING 2 Ellie Mae Closing Document Override - Executed Closing Documents Expiration Date 8.1
Standard CLOSING.LNDNTRYCMSNEXPRDT DATE Ellie Mae Closing Document Override - Notary Commission Expiration Date 8.1
Standard CLOSING.PRTADTLDATEHUD1 STRING 2 Ellie Mae Closing Document Override - Print Additional Settlement Date on HUD1 8.1
Standard CLOSING.PRTDOCDTSCTYISTRMTNTRYAPRNCDT STRING 2 Ellie Mae Closing Document Override - Print Document Data as Security Instrument Notary Appearance Date Indicator 8.1
Standard CLOSING.RTTOCANCELTRANSDTTYP STRING 2 Ellie Mae Closing Document Override - Right To Cancel Transaction Date 8.1
Standard COMPLIANCEREVIEW.X3 DATE Mavent Compliance Review Ordered Date
Virtual CONDITION.DATEADDED DATE Condition Date Added
Virtual CONDITION.DATECLEARED DATE Condition Date Cleared
Virtual CONDITION.DATERECEIVED DATE Condition Date Received
Virtual CONDITION.DATEREVIEWED DATE Condition Date Reviewed
Virtual CONDITION.DATEWAIVED DATE Condition Date Waived
Standard CONST.X10 DATE Construction Management Project Data - Construction Contract Issued Date 16.3
Standard CONST.X11 DATE Construction Management Project Data - Commitment Letter Date 16.3
Standard CONST.X12 DATE Construction Management Project Data - Commitment Expiration Date 16.3
Standard CONST.X16 DATE Construction Management Project Data - Take-out Commitment Date 16.3
Standard CONST.X18 DATE Construction Management Project Data - Title Insurance Date 16.3
Standard CONST.X20 DATE Construction Management Project Data - Survey Date 16.3
Standard CONST.X22 DATE Construction Management Project Data - Permits Date 16.3
Standard CONST.X24 DATE Construction Management Project Data - Utility Letters Date 16.3
Standard CONST.X26 DATE Construction Management Project Data - Plans and Specifications Date 16.3
Standard CONST.X28 DATE Construction Management Project Data - Construction Contract Received Date 16.3
Standard CONST.X3 DATE Construction Management Loan Info - Const. Completion Date 16.3
Standard CONST.X30 DATE Construction Management Project Data - Budget Date 16.3
Standard CONST.X32 DATE Construction Management Project Data - Contractor's Agreement Date 16.3
Standard CONST.X34 DATE Construction Management Project Data - Architect's Certificate Date 16.3
Standard CONST.X36 DATE Construction Management Project Data - Environmental Assessment Date 16.3
Standard CONST.X38 DATE Construction Management Project Data - Soil Report Date 16.3
Standard CONST.X40 DATE Construction Management Project Data - Water Test Date 16.3
Standard CONST.X42 DATE Construction Management Project Data - Percolation Test Date 16.3
Standard CONST.X44 DATE Construction Management Project Data - Payment and Performance Bonds Date 16.3
Standard CONST.X46 DATE Construction Management Project Data - Lien Agent (North Carolina) Date 16.3
Standard CONST.X48 DATE Construction Management Project Data - Flood Hazard Determination Date 16.3
Standard CONST.X50 DATE Construction Management Project Data - List of Construction Agreements Date 16.3
Standard CONST.X52 DATE Construction Management Project Data - Other Date 16.3
Standard CONST.X67 DATE Take-Out Commitment Letter Date 17.1
Standard CPA.PAYMENTHISTORY.ANTICIPATEDPURCHASEDATE DATE Correspondent Purchase Advice Payment History Calculator Anticipated Purchase Date 17.3
Standard CPA.PAYMENTHISTORY.EXTRAPAYMENT.DATE.01 DATE Correspondent Purchase Advice Payment History Calculator Extra Payment #1 Date 17.3
Standard CPA.PAYMENTHISTORY.EXTRAPAYMENT.DATE.02 DATE Correspondent Purchase Advice Payment History Calculator Extra Payment #2 Date 17.3
Standard CPA.PAYMENTHISTORY.EXTRAPAYMENT.DATE.03 DATE Correspondent Purchase Advice Payment History Calculator Extra Payment #3 Date 17.3
Standard CPA.PAYMENTHISTORY.EXTRAPAYMENT.DATE.04 DATE Correspondent Purchase Advice Payment History Calculator Extra Payment #4 Date 17.3
Standard CPA.PAYMENTHISTORY.EXTRAPAYMENT.DATE.05 DATE Correspondent Purchase Advice Payment History Calculator Extra Payment #5 Date 17.3
Standard CPA.PAYMENTHISTORY.EXTRAPAYMENT.DATE.06 DATE Correspondent Purchase Advice Payment History Calculator Extra Payment #6 Date 17.3
Standard CPA.PAYMENTHISTORY.EXTRAPAYMENT.DATE.07 DATE Correspondent Purchase Advice Payment History Calculator Extra Payment #7 Date 17.3
Standard CPA.PAYMENTHISTORY.EXTRAPAYMENT.DATE.08 DATE Correspondent Purchase Advice Payment History Calculator Extra Payment #8 Date 17.3
Standard CPA.PAYMENTHISTORY.EXTRAPAYMENT.DATE.09 DATE Correspondent Purchase Advice Payment History Calculator Extra Payment #9 Date 17.3
Standard CPA.PAYMENTHISTORY.EXTRAPAYMENT.DATE.10 DATE Correspondent Purchase Advice Payment History Calculator Extra Payment #10 Date 17.3
Standard CPA.PAYMENTHISTORY.EXTRAPAYMENT.DATE.11 DATE Correspondent Purchase Advice Payment History Calculator Extra Payment #11 Date 17.3
Standard CPA.PAYMENTHISTORY.FIRSTBORROWERPAYMENTDUEDATE DATE Correspondent Purchase Advice Payment History Calculator 1st Payment Due from Borrower 17.3
Standard CPA.PAYMENTHISTORY.FIRSTINVESTORPAYMENTDATE DATE Correspondent Purchase Advice Payment History Calculator ???1st Payment Due to Investor 17.3
Standard CPA.PAYMENTHISTORY.NOTEDATE DATE Correspondent Purchase Advice Payment History Calculator Note Date 17.3
Standard CPA.PAYMENTHISTORY.PRICIPALREDUCTION DECIMAL_2 Correspondent Purchase Advice Payment History Calculator principal reduction prior to 1st payment date 17.3
Standard CR0098 DATE Co-Borr Residence Request Date
Standard CT.DOT.INITIALREQUEST.NEXTFOLLOWUPDATE DATE DOT Mort Next Follow-up Date 16.3
Standard CT.DOT.INITIALREQUEST.PURCHASEDATE DATE DOT Mort Note or Purchase Date 16.3
Standard CT.DOT.RETURNREQUEST.NEXTFOLLOWUPDATE DATE DOT Mort Ret Req Next Follow-up Date 16.3
Standard CT.DOT.SHIPPINGSTATUS.SHIPPINGDATE DATE DOT Mort Shipped Date 16.3
Standard CT.FTP.INITIALREQUEST.NEXTFOLLOWUPDATE DATE FTP Next Follow-up Date 16.3
Standard CT.FTP.RETURNREQUEST.NEXTFOLLOWUPDATE DATE FTP Ret Req Next Follow-up Date 16.3
Standard CT.FTP.SHIPPINGSTATUS.SHIPPINGDATE DATE FTP Ship Date 16.3
Standard DD0098 DATE Depository Request Date
Standard DENIAL.X11 DATE Denial Mailed Date
Standard DENIAL.X69 DATE Denial Date
Virtual DISCLOSEDCD.BORROWERACTUALRECEIVEDDATE DATE CD Borrower Actual Received Date 15.1
Virtual DISCLOSEDCD.BORROWERPRESUMEDRECEIVEDDATE DATE CD Borrower Presumed Received Date 15.1
Virtual DISCLOSEDCD.COBORROWERACTUALRECEIVEDDATE DATE CD CoBorrower Actual Received Date 15.1
Virtual DISCLOSEDCD.COBORROWERPRESUMEDRECEIVEDDATE DATE CD CoBorrower Presumed Received Date 15.1
Virtual DISCLOSEDCD.LOANSNAPSHOT_APPLICATIONDATE DATE CD Loan Snapshot - Application Date 15.1
Virtual DISCLOSEDCD.SENTDATE DATE CD Sent Date 15.1
Virtual DISCLOSEDGFE.APPLICATIONDATE DATE GFE Disclosure Application Date
Virtual DISCLOSEDGFE.RECEIVEDDATE DATETIME GFE Disclosure Received Date
Virtual DISCLOSEDGFE.SENTDATE DATE GFE Disclosure Sent Date
Virtual DISCLOSEDGFE.SNAPSHOT.3137 DATE GFE Snapshot - GFE Last Disclosed Date
Virtual DISCLOSEDGFE.SNAPSHOT.3140 DATE GFE Snapshot - GFE Expiration Date
Virtual DISCLOSEDGFE.SNAPSHOT.3163 DATE GFE Snapshot - GFE Last Disclosure Rcvd Date
Virtual DISCLOSEDGFE.SNAPSHOT.3165 DATE GFE Snapshot - Changed Circumstance Rcvd Date 15.1
Virtual DISCLOSEDGFE.SNAPSHOT.3167 DATE GFE Snapshot - Revised GFE Due Date
Virtual DISCLOSEDGFE.SNAPSHOT.3170 DATE GFE Snapshot - GFE Date for Printed Form
Virtual DISCLOSEDGFE.SNAPSHOT.682 DATE GFE Snapshot - Trans Details First Pymt Date
Virtual DISCLOSEDGFE.SNAPSHOT.761 DATE GFE Snapshot - Trans Details Lock Date
Virtual DISCLOSEDGFE.SNAPSHOT.763 DATE GFE Snapshot - Trans Details Est Closing Date
Virtual DISCLOSEDGFE.SNAPSHOT.NEWHUD.X1 STRING GFE Snapshot - Avail Date for GFE Interest Rate
Virtual DISCLOSEDGFE.SNAPSHOT.NEWHUD.X2 DATE GFE Snapshot - Avail Date for All Other GFE Sttlmnt Chrgs
Virtual DISCLOSEDLE.BORROWERACTUALRECEIVEDDATE DATE LE Borrower Actual Received Date 15.1
Virtual DISCLOSEDLE.BORROWERPRESUMEDRECEIVEDDATE DATE LE Borrower Presumed Received Date 15.1
Virtual DISCLOSEDLE.COBORROWERACTUALRECEIVEDDATE DATE LE CoBorrower Actual Received Date 15.1
Virtual DISCLOSEDLE.COBORROWERPRESUMEDRECEIVEDDATE DATE LE CoBorrower Presumed Received Date 15.1
Virtual DISCLOSEDLE.INTENTDATE DATE LE Intent Date 15.1
Virtual DISCLOSEDLE.LOANSNAPSHOT_APPLICATIONDATE DATE LE Loan Snapshot - Application Date 15.1
Virtual DISCLOSEDLE.SENTDATE DATE LE Sent Date 15.1
Virtual DISCLOSEDTIL.APPLICATIONDATE DATE TIL Disclosure Application Date
Virtual DISCLOSEDTIL.RECEIVEDDATE DATETIME TIL Disclosure Received Date
Virtual DISCLOSEDTIL.SENTDATE DATE TIL Disclosure Sent Date
Standard DISCLOSURE.X1031 DATE Disclosure Date of Trust Agreement 9.1
Standard DISCLOSURE.X1036 DATE New York State Specific Disclosure - Assignment Dated 9.1
Standard DISCLOSURE.X1037 DATE New York State Specific Disclosure - Assignment Recorded Date 9.1
Standard DISCLOSURE.X1041 DATE New York State Specific Disclosure - Lien 1 - Mortgage Dated 9.1
Standard DISCLOSURE.X1045 DATE New York State Specific Disclosure - Lien 1 - Note Date 9.1
Standard DISCLOSURE.X1047 DATE New York State Specific Disclosure - Lien 1 - Assignment Dated 9.1
Standard DISCLOSURE.X1048 DATE New York State Specific Disclosure - Lien 1 - Assignment Recorded Date 9.1
Standard DISCLOSURE.X1053 DATE New York State Specific Disclosure - Lien 2 - Mortgage Dated 9.1
Standard DISCLOSURE.X1057 DATE New York State Specific Disclosure - Lien 2 - Note Date 9.1
Standard DISCLOSURE.X1059 DATE New York State Specific Disclosure - Lien 2 - Assignment Dated 9.1
Standard DISCLOSURE.X1060 DATE New York State Specific Disclosure - Lien 2 - Assignment Recorded Date 9.1
Standard DISCLOSURE.X1081 DATE New York State Specific Disclosure - Lien 1 - Mortgage Recorded On Date 9.1
Standard DISCLOSURE.X1085 DATE New York State Specific Disclosure - Lien 2 - Mortgage Recorded On Date 9.1
Standard DISCLOSURE.X1095 DATE North Carolina State Specific Disclosure - Reverse Mortgage Disclosure Date 14.2
Standard DISCLOSURE.X11 DATE Disclosure Borr CB1 Credit Score Date
Standard DISCLOSURE.X1122 DATE Licensed Information of Affidavit - Affirmation Date 15.2
Standard DISCLOSURE.X1131 DATE State Disc - KY - Original Recording Date 16.1
Standard DISCLOSURE.X12 DATE Disclosure Co-Borr CB1 Credit Score Date
Standard DISCLOSURE.X1205 DATE State Disc - Trans Details Loan Commit Expired Date 18.3
Standard DISCLOSURE.X156 DATE Disclosure-NY Date
Standard DISCLOSURE.X172 DATE Disclosure-NY Application Date
Standard DISCLOSURE.X239 DATE State Disc - Financing Agreement Expiration Date
Standard DISCLOSURE.X259 DATE State Disc - Broker Agreement Expiration Date
Standard DISCLOSURE.X265 DATE State Disc - Broker To Provide Services By Date
Standard DISCLOSURE.X31 DATE Disclosure Borr CB2 Credit Score Date
Standard DISCLOSURE.X32 DATE Disclosure Co-Borr CB2 Credit Score Date
Standard DISCLOSURE.X359 INTEGER State Disc - Lock-In Fee Payable Within Days of Today's Date
Standard DISCLOSURE.X364 INTEGER State Disc - Commitment Fee Payable Within Days of Today's Date
Standard DISCLOSURE.X434 DATE State Disc - Borr Accept Commit Agreement by Date
Standard DISCLOSURE.X51 DATE Disclosure Borr CB3 Credit Score Date
Standard DISCLOSURE.X516 DATE State Disc - Conditional Approval Exp Date
Standard DISCLOSURE.X52 DATE Disclosure Co-Borr CB3 Credit Score Date
Standard DISCLOSURE.X527 DATE State Disc - Int Rate Set No Later Than - Date
Standard DISCLOSURE.X555 YN 2 State Disc - Date Brokerage Agreement Signed Indicator
Standard DISCLOSURE.X556 DATE State Disc - Date Brokerage Agreement Signed
Standard DISCLOSURE.X563 YN 2 State Disc - Lndr Policy - Borr Chooses Int Rate Set Date
Standard DISCLOSURE.X681 DATE State Disc - Banker Int Rate Set No Later Than - Date
Standard DISCLOSURE.X682 YN 2 State Disc - Banker Lndr Policy - Borr Chooses Int Rate Set Date
Standard DISCLOSURE.X868 DATE State Disc - Lock-In Period Extended Date
Standard DISCLOSURE.X869 DATE State Disc - Lock-In Period Extension Expiration Date
Standard DISCLOSURE.X871 DATE State Disc - Lock-In Date
Standard DISCLOSURE.X872 DATE State Disc - Lock-in Expiration Date
Standard DISCLOSURE.X881 DATE State Disc - Lock In Fee Due Date
Standard DISCLOSURE.X950 YN 2 Disclosure-NY-Rate Lock honored only if loan closes at least 3 business days prior to the Lock Expiration Date
Standard DISCLOSURE.X951 YN 2 Disclosure-Loan Terms Fixed Through Date of Loan Closing
Standard DISCLOSURE.X959 DATE Disclosure - TX - Disclosure Delivered Date 8.1
Standard DISCLOSURE.X975 DATE Disclosure - AK - Lease Agreement Date 8.1
Standard DMDDM.X1 DATETIME Server Date Time DDM Applied 18.1
Virtual DOCS.CLOSING.EXECLOSDOCEXPRDT STRING Closing Docs - Executed Closing Documents Expiration Date 8.1
Virtual DOCS.CLOSING.LNDNTRYCMSNEXPRDT DATE Closing Docs - Notary Commission Expiration Date 8.1
Virtual DOCS.CLOSING.PRTADTLDATEHUD1 STRING Closing Docs - Print Additional Settlement Date on HUD1 8.1
Virtual DOCS.CLOSING.PRTDOCDTSCTYISTRMTNTRYAPRNCDT STRING Closing Docs - Print Document Data as Security Instrument Notary Appearance Date Indicator 8.1
Virtual DOCS.CLOSING.RTTOCANCELTRANSDTTYP STRING Closing Docs - Right To Cancel Transaction Date 8.1
Virtual DOCUMENT.DATEORDERED DATE Document Date Ordered
Virtual DOCUMENT.DATERECEIVED DATE Document Date Received
Virtual DOCUMENT.DATEREORDERED DATE Document Date Reordered
Virtual DOCUMENT.DATEREVIEWED DATE Document Date Reviewed 15.1
Virtual DOCUMENT.DATESHIPPINGREADY DATE Document Date Shipping Ready 8.1
Virtual DOCUMENT.DATEUNDERWRITINGREADY DATE Document Date Underwriting Ready 8.1
Virtual DOCUMENT.EXPECTEDDATE DATE Document Expected Date
Virtual DOCUMENT.EXPIRATIONDATE DATE Document Expiration Date
Virtual EDISCLOSED2015TRK.EDISCLOSUREACTUALRECEIVEDDATE DATE 2015 Fulfillment Actual Received Date 15.1
Virtual EDISCLOSED2015TRK.EDISCLOSUREPRESUMEDRECEIVEDDATE DATE 2015 Fulfillment Presumed Received Date 15.1
Virtual EDISCLOSED2015TRK.EDISCLOSURESENTDATE DATE 2015 Fulfillment Sent Date 15.1
Virtual EDISCLOSEDTRK.BORROWERDATEACCEPTED DATETIME eDisclosure Date Borrowers Accepted Consent Form 8.1
Virtual EDISCLOSEDTRK.BORROWERDATEAUTHENTICATED DATETIME eDisclosure Date Borrowers Authenticated 14.2
Virtual EDISCLOSEDTRK.BORROWERDATEESIGNED DATETIME eDisclosure Date Borrowers eSigned Disclosures 8.1
Virtual EDISCLOSEDTRK.BORROWERDATEREJECTED DATETIME eDisclosure Date Borrowers Rejected Consent Form 8.1
Virtual EDISCLOSEDTRK.BORROWERDATEVIEWMESSAGE DATETIME eDisclosure Date Borrowers Viewed Message 8.1
Virtual EDISCLOSEDTRK.BORROWERDOCUMENTVIEWEDDATE DATETIME eDisclosure Borrower Document Viewed date 15.1
Virtual EDISCLOSEDTRK.COBORROWERDATEACCEPTED DATETIME eDisclosure Date CoBorrowers Accepted Consent Form 8.1
Virtual EDISCLOSEDTRK.COBORROWERDATEAUTHENTICATED DATETIME eDisclosure Date CoBorrowers Authenticated 14.2
Virtual EDISCLOSEDTRK.COBORROWERDATEESIGNED DATETIME eDisclosure Date CoBorrowers eSigned Disclosures 8.1
Virtual EDISCLOSEDTRK.COBORROWERDATEREJECTED DATETIME eDisclosure Date CoBorrowers Rejected Consent Form 8.1
Virtual EDISCLOSEDTRK.COBORROWERDATEVIEWMESSAGE DATETIME eDisclosure Date CoBorrowers Viewed Message 8.1
Virtual EDISCLOSEDTRK.COBORROWERDOCUMENTVIEWEDDATE DATETIME eDisclosure Co-Borrower Document Viewed date 15.1
Virtual EDISCLOSEDTRK.DATETIMEFULFILLED DATETIME eDisclosure Date Time Fulfilled 8.1
Virtual EDISCLOSEDTRK.LOANORIGINATORDATEESIGNED DATETIME eDisclosure Date Loan Originator eSigned Disclosures 14.2
Virtual EDISCLOSEDTRK.LOANORIGINATORDATEVIEWMESSAGE DATETIME eDisclosure Date Loan Originator Viewed Message 14.2
Virtual EDISCLOSEDTRK.SENTDATE DATETIME eDisclosure Date Time Sent 8.1
Standard EPN.X5 DATE Trans Details Processing Network Submit Date
Standard FE0198 DATE Borr Employer Request Date
Standard FE0298 DATE Co-Borr Employer Request Date
Standard FL0098 DATE Liability Request Date
Standard FLGFE.X76 YN 2 Disclosure-FL GFE of settlemnt chrgs dated/signed by borrower
Standard FLMTGCM.X1 DATE Disclosure-FL Expiration Date
Standard FLMTGCM.X11 DATE Disclosure-FL Borr Accept Date
Standard FM0022 DATE Mortgage Property Date Acquired
Standard FM0098 DATE Mortgage Property Request Date
Standard FM1084.X176 DECIMAL_2 1084B Year-to-Date Total
Standard FR0198 DATE Borr Residence Request Date
Standard FR0298 DATE Co-Borr Residence Request Date
Standard FR0398 DATE Borr Residence Request Date
Standard FR0498 DATE Co-Borr Residence Request Date
Standard FV.X391 STRING LE Revised Sent Date Disclosure Tracking Guid 17.3
Standard FV.X392 STRING LE Initial Received Date Disclosure Tracking Guid 17.3
Standard FV.X393 STRING LE Revised Received Date Disclosure Tracking Guid 17.3
Standard FV.X394 STRING CD Initial Received Date Disclosure Tracking Guid 17.3
Standard FV.X395 STRING CD Revised Received Date Disclosure Tracking Guid 17.3
Standard GLOBAL.S102 DATE REGZ Pymt Sched Pymt Date 33
Standard GLOBAL.S105 DATE REGZ Pymt Sched Pymt Date 34
Standard GLOBAL.S12 DATE REGZ Pymt Sched Pymt Date 4
Standard GLOBAL.S15 DATE REGZ Pymt Sched Pymt Date 5
Standard GLOBAL.S18 DATE REGZ Pymt Sched Pymt Date 6
Standard GLOBAL.S21 DATE REGZ Pymt Sched Pymt Date 7
Standard GLOBAL.S24 DATE REGZ Pymt Sched Pymt Date 8
Standard GLOBAL.S27 DATE REGZ Pymt Sched Pymt Date 9
Standard GLOBAL.S3 DATE REGZ Pymt Sched Pymt Date 1
Standard GLOBAL.S30 DATE REGZ Pymt Sched Pymt Date 10
Standard GLOBAL.S33 DATE REGZ Pymt Sched Pymt Date 11
Standard GLOBAL.S36 DATE REGZ Pymt Sched Pymt Date 12
Standard GLOBAL.S39 DATE REGZ Pymt Sched Pymt Date 13
Standard GLOBAL.S42 DATE REGZ Pymt Sched Pymt Date 14
Standard GLOBAL.S45 DATE REGZ Pymt Sched Pymt Date 15
Standard GLOBAL.S48 DATE REGZ Pymt Sched Pymt Date 16
Standard GLOBAL.S51 DATE REGZ Pymt Sched Pymt Date 17
Standard GLOBAL.S54 DATE REGZ Pymt Sched Pymt Date 18
Standard GLOBAL.S57 DATE REGZ Pymt Sched Pymt Date 19
Standard GLOBAL.S6 DATE REGZ Pymt Sched Pymt Date 2
Standard GLOBAL.S60 DATE REGZ Pymt Sched Pymt Date 20
Standard GLOBAL.S63 DATE REGZ Pymt Sched Pymt Date 21
Standard GLOBAL.S66 DATE REGZ Pymt Sched Pymt Date 22
Standard GLOBAL.S69 DATE REGZ Pymt Sched Pymt Date 23
Standard GLOBAL.S72 DATE REGZ Pymt Sched Pymt Date 24
Standard GLOBAL.S75 DATE REGZ Pymt Sched Pymt Date 25
Standard GLOBAL.S78 DATE REGZ Pymt Sched Pymt Date 26
Standard GLOBAL.S81 DATE REGZ Pymt Sched Pymt Date 27
Standard GLOBAL.S84 DATE REGZ Pymt Sched Pymt Date 28
Standard GLOBAL.S87 DATE REGZ Pymt Sched Pymt Date 28
Standard GLOBAL.S9 DATE REGZ Pymt Sched Pymt Date 3
Standard GLOBAL.S90 DATE REGZ Pymt Sched Pymt Date 29
Standard GLOBAL.S93 DATE REGZ Pymt Sched Pymt Date 30
Standard GLOBAL.S96 DATE REGZ Pymt Sched Pymt Date 31
Standard GLOBAL.S99 DATE REGZ Pymt Sched Pymt Date 32
Standard HMDA.X104 STRING HMDA Profile - Application Date value from Setting 18.1
Standard HMDA.X29 STRING Application Date 17.2
Standard HMDA.X96 STRING Repurchased Action Date 17.3
Standard HOC.X17 DATE Home Counseling Provider - Home Counseling Completion Date 9.1
Standard HOC.X19 DATE Home Counseling Provider - Home Counseling Disclosure Date 9.1
Standard HOC.X24 DATE Home Counseling Provider - Home Counseling Generated Date 17.3
Standard HUD0001 STRING Escrow Payment Date
Standard HUD0011 DECIMAL_2 Escrow Date Balance
Standard HUD0012 STRING Escrow Setup Date
Standard HUD0041 DATE Escrow Tax Disb Date
Standard HUD0042 DATE Escrow Haz Ins Disb Date
Standard HUD0043 DATE Escrow Mtg Ins Disb Date
Standard HUD0044 DATE Escrow Flood Ins Disb Date
Standard HUD0045 DATE Escrow City Taxes Date
Standard HUD0046 DATE Escrow User Defined 1 Date
Standard HUD0047 DATE Escrow User Defined 2 Date
Standard HUD0048 DATE Escrow User Defined 3 Date
Standard HUD0049 DATE Escrow Annual Fee Date
Standard HUD68 DATE Escrow First Payment Date 17.1
Standard HUD69 STRING 2 Escrow First Payment Date Type 17.1
Standard IR0061 DATE IRS4506 T Record - Last Updated Date 8.1
Standard IR0062 STRING IRS4506 T Record - Last Updated Time 8.1
Standard IR0099 INTEGER IRS4506 T Record - Last Updated History Record 8.1
Virtual ISPAY.ALL.0.CREATEDDATETIME DATETIME Interim Servicing - Created Date Time (Most Recent Payment) 17.1
Virtual ISPAY.ALL.0.DATE DATE Interim Servicing - Date (Most Recent Payment) 17.1
Virtual ISPAY.ALL.0.MODIFIEDDATETIME DATETIME Interim Servicing - Modified Date Time (Most Recent Payment) 17.1
Virtual ISPAY.ALL.1.CREATEDDATETIME DATETIME Interim Servicing - Created Date Time (Previous 1 Payment) 17.1
Virtual ISPAY.ALL.1.DATE DATE Interim Servicing - Date (Previous 1 Payment) 17.1
Virtual ISPAY.ALL.1.MODIFIEDDATETIME DATETIME Interim Servicing - Modified Date Time (Previous 1 Payment) 17.1
Virtual ISPAY.ALL.2.CREATEDDATETIME DATETIME Interim Servicing - Created Date Time (Previous 2 Payment) 17.1
Virtual ISPAY.ALL.2.DATE DATE Interim Servicing - Date (Previous 2 Payment) 17.1
Virtual ISPAY.ALL.2.MODIFIEDDATETIME DATETIME Interim Servicing - Modified Date Time (Previous 2 Payment) 17.1
Virtual ISPAY.ALL.3.CREATEDDATETIME DATETIME Interim Servicing - Created Date Time (Previous 3 Payment) 17.1
Virtual ISPAY.ALL.3.DATE DATE Interim Servicing - Date (Previous 3 Payment) 17.1
Virtual ISPAY.ALL.3.MODIFIEDDATETIME DATETIME Interim Servicing - Modified Date Time (Previous 3 Payment) 17.1
Virtual ISPAY.ALL.4.CREATEDDATETIME DATETIME Interim Servicing - Created Date Time (Previous 4 Payment) 17.1
Virtual ISPAY.ALL.4.DATE DATE Interim Servicing - Date (Previous 4 Payment) 17.1
Virtual ISPAY.ALL.4.MODIFIEDDATETIME DATETIME Interim Servicing - Modified Date Time (Previous 4 Payment) 17.1
Virtual ISPAY.ESCROW.0.DATE DATE Interim Servicing - Disbursement Date (Most Recent Escrow Payment)
Virtual ISPAY.ESCROW.0.DUEDATE DATE Interim Servicing - Due Date (Most Recent Escrow Payment)
Virtual ISPAY.ESCROW.1.DATE DATE Interim Servicing - Disbursement Date (Previous 1 Escrow Payment)
Virtual ISPAY.ESCROW.1.DUEDATE DATE Interim Servicing - Due Date (Previous 1 Escrow Payment)
Virtual ISPAY.ESCROW.2.DATE DATE Interim Servicing - Disbursement Date (Previous 2 Escrow Payment)
Virtual ISPAY.ESCROW.2.DUEDATE DATE Interim Servicing - Due Date (Previous 2 Escrow Payment)
Virtual ISPAY.ESCROW.3.DATE DATE Interim Servicing - Disbursement Date (Previous 3 Escrow Payment)
Virtual ISPAY.ESCROW.3.DUEDATE DATE Interim Servicing - Due Date (Previous 3 Escrow Payment)
Virtual ISPAY.ESCROW.4.DATE DATE Interim Servicing - Disbursement Date (Previous 4 Escrow Payment)
Virtual ISPAY.ESCROW.4.DUEDATE DATE Interim Servicing - Due Date (Previous 4 Escrow Payment)
Virtual ISPAY.INTEREST.0.DATE DATE Interim Servicing - Interest Incurred Date (Most Recent Escrow Interest Payment)
Virtual ISPAY.INTEREST.1.DATE DATE Interim Servicing - Interest Incurred Date (Previous 1 Escrow Interest Payment)
Virtual ISPAY.INTEREST.2.DATE DATE Interim Servicing - Interest Incurred Date (Previous 2 Escrow Interest Payment)
Virtual ISPAY.INTEREST.3.DATE DATE Interim Servicing - Interest Incurred Date (Previous 3 Escrow Interest Payment)
Virtual ISPAY.INTEREST.4.DATE DATE Interim Servicing - Interest Incurred Date (Previous 4 Escrow Interest Payment)
Virtual ISPAY.OTHER.0.DATE DATE Interim Servicing - Date (Most Recent Other Payment)
Virtual ISPAY.OTHER.1.DATE DATE Interim Servicing - Date (Previous 1 Other Payment)
Virtual ISPAY.OTHER.2.DATE DATE Interim Servicing - Date (Previous 2 Other Payment)
Virtual ISPAY.OTHER.3.DATE DATE Interim Servicing - Date (Previous 3 Other Payment)
Virtual ISPAY.OTHER.4.DATE DATE Interim Servicing - Date (Previous 4 Other Payment)
Virtual ISPAY.OTHER.NEXTDISBURSEMENTDATE DATE Interim Servicing - Next Disbursement Date
Virtual ISPAY.PAYMENT.0.CHKDATE DATE Interim Servicing - Check/Transaction/Credited/Wired Date (Most Recent Mortgage Payment)
Virtual ISPAY.PAYMENT.0.DEPODATE DATE Interim Servicing - Deposited Date (Most Recent Mortgage Payment)
Virtual ISPAY.PAYMENT.0.DUEDATE DATE Interim Servicing - Due Date (Most Recent Mortgage Payment)
Virtual ISPAY.PAYMENT.0.LATEDATE DATE Interim Servicing - Late Payment Date (Most Recent Mortgage Payment)
Virtual ISPAY.PAYMENT.0.RDATE DATE Interim Servicing - Received Date (Most Recent Mortgage Payment)
Virtual ISPAY.PAYMENT.0.SDATE DATE Interim Servicing - Statement Date (Most Recent Mortgage Payment)
Virtual ISPAY.PAYMENT.1.CHKDATE DATE Interim Servicing - Check/Transaction/Credited/Wired Date (Previous 1 Mortgage Payment)
Virtual ISPAY.PAYMENT.1.DEPODATE DATE Interim Servicing - Deposited Date (Previous 1 Mortgage Payment)
Virtual ISPAY.PAYMENT.1.DUEDATE DATE Interim Servicing - Due Date (Previous 1 Mortgage Payment)
Virtual ISPAY.PAYMENT.1.LATEDATE DATE Interim Servicing - Late Payment Date (Previous 1 Mortgage Payment)
Virtual ISPAY.PAYMENT.1.RDATE DATE Interim Servicing - Received Date (Previous 1 Mortgage Payment)
Virtual ISPAY.PAYMENT.1.SDATE DATE Interim Servicing - Statement Date (Previous 1 Mortgage Payment)
Virtual ISPAY.PAYMENT.2.CHKDATE DATE Interim Servicing - Check/Transaction/Credited/Wired Date (Previous 2 Mortgage Payment)
Virtual ISPAY.PAYMENT.2.DEPODATE DATE Interim Servicing - Deposited Date (Previous 2 Mortgage Payment)
Virtual ISPAY.PAYMENT.2.DUEDATE DATE Interim Servicing - Due Date (Previous 2 Mortgage Payment)
Virtual ISPAY.PAYMENT.2.LATEDATE DATE Interim Servicing - Late Payment Date (Previous 2 Mortgage Payment)
Virtual ISPAY.PAYMENT.2.RDATE DATE Interim Servicing - Received Date (Previous 2 Mortgage Payment)
Virtual ISPAY.PAYMENT.2.SDATE DATE Interim Servicing - Statement Date (Previous 2 Mortgage Payment)
Virtual ISPAY.PAYMENT.3.CHKDATE DATE Interim Servicing - Check/Transaction/Credited/Wired Date (Previous 3 Mortgage Payment)
Virtual ISPAY.PAYMENT.3.DEPODATE DATE Interim Servicing - Deposited Date (Previous 3 Mortgage Payment)
Virtual ISPAY.PAYMENT.3.DUEDATE DATE Interim Servicing - Due Date (Previous 3 Mortgage Payment)
Virtual ISPAY.PAYMENT.3.LATEDATE DATE Interim Servicing - Late Payment Date (Previous 3 Mortgage Payment)
Virtual ISPAY.PAYMENT.3.RDATE DATE Interim Servicing - Received Date (Previous 3 Mortgage Payment)
Virtual ISPAY.PAYMENT.3.SDATE DATE Interim Servicing - Statement Date (Previous 3 Mortgage Payment)
Virtual ISPAY.PAYMENT.4.CHKDATE DATE Interim Servicing - Check/Transaction/Credited/Wired Date (Previous 4 Mortgage Payment)
Virtual ISPAY.PAYMENT.4.DEPODATE DATE Interim Servicing - Deposited Date (Previous 4 Mortgage Payment)
Virtual ISPAY.PAYMENT.4.DUEDATE DATE Interim Servicing - Due Date (Previous 4 Mortgage Payment)
Virtual ISPAY.PAYMENT.4.LATEDATE DATE Interim Servicing - Late Payment Date (Previous 4 Mortgage Payment)
Virtual ISPAY.PAYMENT.4.RDATE DATE Interim Servicing - Received Date (Previous 4 Mortgage Payment)
Virtual ISPAY.PAYMENT.4.SDATE DATE Interim Servicing - Statement Date (Previous 4 Mortgage Payment)
Virtual ISPAY.PRINCIPAL.0.DATE DATE Interim Servicing - Principal Disbursement Date (Most Recent Principal Disbursement) 17.1
Virtual ISPAY.PRINCIPAL.1.DATE DATE Interim Servicing - Principal Disbursement Date (Previous 1 Principal Disbursement) 17.1
Virtual ISPAY.PRINCIPAL.2.DATE DATE Interim Servicing - Principal Disbursement Date (Previous 2 Principal Disbursement) 17.1
Virtual ISPAY.PRINCIPAL.3.DATE DATE Interim Servicing - Principal Disbursement Date (Previous 3 Principal Disbursement) 17.1
Virtual ISPAY.PRINCIPAL.4.DATE DATE Interim Servicing - Principal Disbursement Date (Previous 4 Principal Disbursement) 17.1
Standard L101 DATE HUD1 Seller - Adj for Seller PIA County From Date
Standard L102 DATE HUD1 Seller - Adj for Seller PIA County To Date
Standard L104 DATE HUD1 Borr - Adj for Seller PIA Assmt From Date
Standard L105 DATE HUD1 Borr - Adj for Seller PIA Assmt To Date
Standard L107 DATE HUD1 Seller - Adj for Seller PIA Assmt From Date
Standard L108 DATE HUD1 Seller - Adj for Seller PIA Assmt To Date
Standard L156 DATE HUD1 Borr - Adj Unpaid By Seller City From Date
Standard L157 DATE HUD1 Borr - Adj Unpaid By Seller City To Date
Standard L159 DATE HUD1 Seller - Adj Unpaid By Seller City From Date
Standard L160 DATE HUD1 Seller - Adj Unpaid By Seller City To Date
Standard L162 DATE HUD1 Borr - Adj Unpaid By Seller County From Date
Standard L163 DATE HUD1 Borr - Adj Unpaid By Seller County To Date
Standard L165 DATE HUD1 Seller - Adj Unpaid By Seller County From Date
Standard L166 DATE HUD1 Seller - Adj Unpaid By Seller County To Date
Standard L168 DATE HUD1 Borr - Adj Unpaid By Seller Assmt From Date
Standard L169 DATE HUD1 Borr - Adj Unpaid By Seller Assmt To Date
Standard L171 DATE HUD1 Seller - Adj Unpaid By Seller Assmt From Date
Standard L172 DATE HUD1 Seller - Adj Unpaid By Seller Assmt To Date
Standard L362 DATE Property Info Title Report Date
Standard L724 DATE REGZ Loan Info Rescission Date
Standard L76 DATE HUD1 Settlement Date
Standard L770 DATE REGZ Loan Info Document Date
Standard L92 DATE HUD1 Borr - Adj for Seller PIA City From Date
Standard L93 DATE HUD1 Borr - Adj for Seller PIA City To Date
Standard L95 DATE HUD1 Seller - Adj for Seller PIA City From Date
Standard L96 DATE HUD1 Seller - Adj for Seller PIA City To Date
Standard L98 DATE HUD1 Borr - Adj for Seller PIA County From Date
Standard L99 DATE HUD1 Borr - Adj for Seller PIA County To Date
Standard LATEFEESETTING.X13 STRING Correspondent Loan Status - External Late Fee Settings - DayClearedOtherDate 17.1
Standard LATEFEESETTING.X14 STRING Correspondent Loan Status - External Late Fee Settings - OtherDate Value 17.2
Standard LATEFEESETTING.X15 STRING Correspondent Loan Status - External Late Fee Settings - DayClearedOtherDate Value 17.2
Standard LATEFEESETTING.X9 STRING Correspondent Loan Status - External Late Fee Settings - OtherDate 15.1
Standard LCP.X19 STRING Loan Compensation Plan - Last Applied Date and Time 8.1
Standard LCP.X20 DATE Loan Compensation Plan - Last Applied Date 8.1
Standard LCP.X5 DATE Loan Compensation Plan - Plan Date 8.1
Standard LE1.X1 DATE Loan Estimate - LE Date Issued 15.1
Standard LE1.X28 DATE Loan Estimate - Closing Costs Estimate Expiration Date 15.1
Standard LE1.X33 DATE Loan Estimate - Disclosure Last Sent Date 15.1
Standard LE1.X36 DATE Loan Estimate - Disclosure Closing Cost Exp. Date 15.1
Standard LE1.X39 DATE Loan Estimate - Disclosure Received Date 15.1
Standard LE1.XD28 STRING Loan Estimate - Closing Costs Estimate Expiration Date UI Value 18.2
Standard LOANSUB.X16 DATE Trans Details Date Last Pymt Recd
Virtual LOCKRATE.2089 DATE Rate Lock - Rate Lock Request Lock Date (Most Recent)
Virtual LOCKRATE.2091 DATE Rate Lock - Rate Lock Request Lock Expires Date (Most Recent)
Virtual LOCKRATE.2149 DATE Rate Lock - Rate Lock Buy Side Lock Date (Most Recent)
Virtual LOCKRATE.2151 DATE Rate Lock - Rate Lock Buy Side Lock Expires Date (Most Recent)
Virtual LOCKRATE.2206 DATE Rate Lock - Rate Lock Sell Side Target Delivery Date (Most Recent) 8.1
Virtual LOCKRATE.2220 DATE Rate Lock - Rate Lock Sell Side Lock Date (Most Recent)
Virtual LOCKRATE.2222 DATE Rate Lock - Rate Lock Sell Side Lock Expires Date (Most Recent)
Virtual LOCKRATE.2291 DATE Rate Lock - Rate Lock Sell Side Date Locked with Investor (Most Recent)
Virtual LOCKRATE.2297 DATE Rate Lock - Rate Lock Sell Side Investor Delivery Date (Most Recent) 8.1
Virtual LOCKRATE.2592 STRING Rate Lock - Rate Lock Request Fulfilled Date Time (Most Recent)
Virtual LOCKRATE.2966 DATE Rate Lock - Lock Request Est Closing Date (Most Recent)
Virtual LOCKRATE.3254 DATE Rate Lock - Rate Lock Request Last Rate Set Date (Most Recent)
Virtual LOCKRATE.3256 DATE Rate Lock - Rate Lock Buy Side Last Rate Set Date (Most Recent)
Virtual LOCKRATE.3257 DATE Rate Lock - Rate Lock Sell Side Last Rate Set Date (Most Recent)
Virtual LOCKRATE.3358 DATE Rate Lock - Rate Lock Buy Side Lock Expires Date (Most Recent) 8.1
Virtual LOCKRATE.3359 DATE Rate Lock - Rate Lock Sell Side Lock Expires Date (Most Recent) 8.1
Virtual LOCKRATE.3361 DATE Rate Lock - Rate Lock Request Extended Lock Expires Date (Most Recent) 8.1
Virtual LOCKRATE.3364 DATE Rate Lock - Rate Lock Buy Side Extended Lock Expires Date (Most Recent) 8.1
Virtual LOCKRATE.3367 DATE Rate Lock - Rate Lock Sell Side Extended Lock Expires Date (Most Recent) 8.1
Virtual LOCKRATE.3369 DATE Rate Lock - Rate Lock Request Original Lock Expires Date (Most Recent) 8.1
Virtual LOCKRATE.3372 DATE Rate Lock - Rate Lock Buy Side Corporate Concession Approval Date (Most Recent)
Virtual LOCKRATE.3376 DATE Rate Lock - Rate Lock Buy Side Branch Concession Approval Date (Most Recent)
Virtual LOCKRATE.3663 DATE Rate Lock - Rate Lock Comparison Last Rate Set Date (Most Recent) 9.1
Virtual LOCKRATE.3664 DATE Rate Lock - Rate Lock Comparison Lock Date (Most Recent) 9.1
Virtual LOCKRATE.3666 DATE Rate Lock - Rate Lock Comparison Lock Expires Date (Most Recent) 9.1
Virtual LOCKRATE.3909 DATE Rate Lock - Rate Lock BuySide Commitment Date (Most Recent) 15.1
Virtual LOCKRATE.3912 DATE Rate Lock - Rate Lock BuySide Expiration Date (Most Recent) 15.1
Virtual LOCKRATE.3913 DATE Rate Lock - Rate Lock BuySide Delivery Expiration Date (Most Recent) 15.1
Virtual LOCKRATE.4016 DATE Rate Lock - Rate Lock Sell Side Commitment Date (Most Recent) 15.1
Virtual LOCKRATE.4069 DATE Rate Lock - Rate Lock Request ONRP Lock Date (Most Recent) 15.2
Virtual LOCKRATE.4070 DATE Rate Lock - Rate Lock Buy Side ONRP Lock Date (Most Recent) 15.2
Virtual LOCKRATE.763 DATE Rate Lock - Trans Details Est Closing Date (Most Recent)
Virtual LOCKRATE.CANCELLEDDATETIME DATETIME Rate Lock - Cancelled Date Time (Most Recent) 9.1
Virtual LOCKRATE.CONFIRMED.2089 DATE Rate Request - Rate Lock Request Lock Date (Mostly Recent Confirmed)
Virtual LOCKRATE.CONFIRMED.2091 DATE Rate Request - Rate Lock Request Lock Expires Date (Mostly Recent Confirmed)
Virtual LOCKRATE.CONFIRMED.2149 DATE Rate Request - Rate Lock Buy Side Lock Date (Mostly Recent Confirmed)
Virtual LOCKRATE.CONFIRMED.2151 DATE Rate Request - Rate Lock Buy Side Lock Expires Date (Mostly Recent Confirmed)
Virtual LOCKRATE.CONFIRMED.2206 DATE Rate Request - Rate Lock Sell Side Target Delivery Date (Mostly Recent Confirmed) 8.1
Virtual LOCKRATE.CONFIRMED.2220 DATE Rate Request - Rate Lock Sell Side Lock Date (Mostly Recent Confirmed)
Virtual LOCKRATE.CONFIRMED.2222 DATE Rate Request - Rate Lock Sell Side Lock Expires Date (Mostly Recent Confirmed)
Virtual LOCKRATE.CONFIRMED.2291 DATE Rate Request - Rate Lock Sell Side Date Locked with Investor (Mostly Recent Confirmed)
Virtual LOCKRATE.CONFIRMED.2297 DATE Rate Request - Rate Lock Sell Side Investor Delivery Date (Mostly Recent Confirmed) 8.1
Virtual LOCKRATE.CONFIRMED.2592 STRING Rate Request - Rate Lock Request Fulfilled Date Time (Mostly Recent Confirmed)
Virtual LOCKRATE.CONFIRMED.2966 DATE Rate Request - Lock Request Est Closing Date (Mostly Recent Confirmed)
Virtual LOCKRATE.CONFIRMED.3254 DATE Rate Request - Rate Lock Request Last Rate Set Date (Mostly Recent Confirmed)
Virtual LOCKRATE.CONFIRMED.3256 DATE Rate Request - Rate Lock Buy Side Last Rate Set Date (Mostly Recent Confirmed)
Virtual LOCKRATE.CONFIRMED.3257 DATE Rate Request - Rate Lock Sell Side Last Rate Set Date (Mostly Recent Confirmed)
Virtual LOCKRATE.CONFIRMED.3358 DATE Rate Request - Rate Lock Buy Side Lock Expires Date (Mostly Recent Confirmed) 8.1
Virtual LOCKRATE.CONFIRMED.3359 DATE Rate Request - Rate Lock Sell Side Lock Expires Date (Mostly Recent Confirmed) 8.1
Virtual LOCKRATE.CONFIRMED.3361 DATE Rate Request - Rate Lock Request Extended Lock Expires Date (Mostly Recent Confirmed) 8.1
Virtual LOCKRATE.CONFIRMED.3364 DATE Rate Request - Rate Lock Buy Side Extended Lock Expires Date (Mostly Recent Confirmed) 8.1
Virtual LOCKRATE.CONFIRMED.3367 DATE Rate Request - Rate Lock Sell Side Extended Lock Expires Date (Mostly Recent Confirmed) 8.1
Virtual LOCKRATE.CONFIRMED.3369 DATE Rate Request - Rate Lock Request Original Lock Expires Date (Mostly Recent Confirmed) 8.1
Virtual LOCKRATE.CONFIRMED.3372 DATE Rate Request - Rate Lock Buy Side Corporate Concession Approval Date (Mostly Recent Confirmed)
Virtual LOCKRATE.CONFIRMED.3376 DATE Rate Request - Rate Lock Buy Side Branch Concession Approval Date (Mostly Recent Confirmed)
Virtual LOCKRATE.CONFIRMED.3663 DATE Rate Request - Rate Lock Comparison Last Rate Set Date (Mostly Recent Confirmed) 9.1
Virtual LOCKRATE.CONFIRMED.3664 DATE Rate Request - Rate Lock Comparison Lock Date (Mostly Recent Confirmed) 9.1
Virtual LOCKRATE.CONFIRMED.3666 DATE Rate Request - Rate Lock Comparison Lock Expires Date (Mostly Recent Confirmed) 9.1
Virtual LOCKRATE.CONFIRMED.3909 DATE Rate Request - Rate Lock BuySide Commitment Date (Mostly Recent Confirmed) 15.1
Virtual LOCKRATE.CONFIRMED.3912 DATE Rate Request - Rate Lock BuySide Expiration Date (Mostly Recent Confirmed) 15.1
Virtual LOCKRATE.CONFIRMED.3913 DATE Rate Request - Rate Lock BuySide Delivery Expiration Date (Mostly Recent Confirmed) 15.1
Virtual LOCKRATE.CONFIRMED.4016 DATE Rate Request - Rate Lock Sell Side Commitment Date (Mostly Recent Confirmed) 15.1
Virtual LOCKRATE.CONFIRMED.4069 DATE Rate Request - Rate Lock Request ONRP Lock Date (Mostly Recent Confirmed) 15.2
Virtual LOCKRATE.CONFIRMED.4070 DATE Rate Request - Rate Lock Buy Side ONRP Lock Date (Mostly Recent Confirmed) 15.2
Virtual LOCKRATE.CONFIRMED.763 DATE Rate Request - Trans Details Est Closing Date (Mostly Recent Confirmed)
Virtual LOCKRATE.CURRENTDATETIME STRING Rate Lock - Date and Time of current status occurred
Virtual LOCKRATE.DENIED.2089 DATE Rate Lock Denial - Rate Lock Request Lock Date (Most Recent) 8.1
Virtual LOCKRATE.DENIED.2091 DATE Rate Lock Denial - Rate Lock Request Lock Expires Date (Most Recent) 8.1
Virtual LOCKRATE.DENIED.2149 DATE Rate Lock Denial - Rate Lock Buy Side Lock Date (Most Recent) 8.1
Virtual LOCKRATE.DENIED.2151 DATE Rate Lock Denial - Rate Lock Buy Side Lock Expires Date (Most Recent) 8.1
Virtual LOCKRATE.DENIED.2206 DATE Rate Lock Denial - Rate Lock Sell Side Target Delivery Date (Most Recent) 8.1
Virtual LOCKRATE.DENIED.2220 DATE Rate Lock Denial - Rate Lock Sell Side Lock Date (Most Recent) 8.1
Virtual LOCKRATE.DENIED.2222 DATE Rate Lock Denial - Rate Lock Sell Side Lock Expires Date (Most Recent) 8.1
Virtual LOCKRATE.DENIED.2291 DATE Rate Lock Denial - Rate Lock Sell Side Date Locked with Investor (Most Recent) 8.1
Virtual LOCKRATE.DENIED.2297 DATE Rate Lock Denial - Rate Lock Sell Side Investor Delivery Date (Most Recent) 8.1
Virtual LOCKRATE.DENIED.2592 STRING Rate Lock Denial - Rate Lock Request Fulfilled Date Time (Most Recent) 8.1
Virtual LOCKRATE.DENIED.2966 DATE Rate Lock Denial - Lock Request Est Closing Date (Most Recent) 8.1
Virtual LOCKRATE.DENIED.3254 DATE Rate Lock Denial - Rate Lock Request Last Rate Set Date (Most Recent) 8.1
Virtual LOCKRATE.DENIED.3256 DATE Rate Lock Denial - Rate Lock Buy Side Last Rate Set Date (Most Recent) 8.1
Virtual LOCKRATE.DENIED.3257 DATE Rate Lock Denial - Rate Lock Sell Side Last Rate Set Date (Most Recent) 8.1
Virtual LOCKRATE.DENIED.3358 DATE Rate Lock Denial - Rate Lock Buy Side Lock Expires Date (Most Recent) 8.1
Virtual LOCKRATE.DENIED.3359 DATE Rate Lock Denial - Rate Lock Sell Side Lock Expires Date (Most Recent) 8.1
Virtual LOCKRATE.DENIED.3361 DATE Rate Lock Denial - Rate Lock Request Extended Lock Expires Date (Most Recent) 8.1
Virtual LOCKRATE.DENIED.3364 DATE Rate Lock Denial - Rate Lock Buy Side Extended Lock Expires Date (Most Recent) 8.1
Virtual LOCKRATE.DENIED.3367 DATE Rate Lock Denial - Rate Lock Sell Side Extended Lock Expires Date (Most Recent) 8.1
Virtual LOCKRATE.DENIED.3369 DATE Rate Lock Denial - Rate Lock Request Original Lock Expires Date (Most Recent) 8.1
Virtual LOCKRATE.DENIED.3372 DATE Rate Lock Denial - Rate Lock Buy Side Corporate Concession Approval Date (Most Recent) 8.1
Virtual LOCKRATE.DENIED.3376 DATE Rate Lock Denial - Rate Lock Buy Side Branch Concession Approval Date (Most Recent) 8.1
Virtual LOCKRATE.DENIED.3663 DATE Rate Lock Denial - Rate Lock Comparison Last Rate Set Date (Most Recent) 9.1
Virtual LOCKRATE.DENIED.3664 DATE Rate Lock Denial - Rate Lock Comparison Lock Date (Most Recent) 9.1
Virtual LOCKRATE.DENIED.3666 DATE Rate Lock Denial - Rate Lock Comparison Lock Expires Date (Most Recent) 9.1
Virtual LOCKRATE.DENIED.3909 DATE Rate Lock Denial - Rate Lock BuySide Commitment Date (Most Recent) 15.1
Virtual LOCKRATE.DENIED.3912 DATE Rate Lock Denial - Rate Lock BuySide Expiration Date (Most Recent) 15.1
Virtual LOCKRATE.DENIED.3913 DATE Rate Lock Denial - Rate Lock BuySide Delivery Expiration Date (Most Recent) 15.1
Virtual LOCKRATE.DENIED.4016 DATE Rate Lock Denial - Rate Lock Sell Side Commitment Date (Most Recent) 15.1
Virtual LOCKRATE.DENIED.4069 DATE Rate Lock Denial - Rate Lock Request ONRP Lock Date (Most Recent) 15.2
Virtual LOCKRATE.DENIED.4070 DATE Rate Lock Denial - Rate Lock Buy Side ONRP Lock Date (Most Recent) 15.2
Virtual LOCKRATE.DENIED.763 DATE Rate Lock Denial - Trans Details Est Closing Date (Most Recent) 8.1
Virtual LOCKRATE.FULFILLEDDATETIME DATETIME Rate Lock - Fulfilled Date Time (Most Recent)
Virtual LOCKRATE.REQUEST.2089 DATE Rate Lock Request - Rate Lock Request Lock Date (Most Recent) 8.1
Virtual LOCKRATE.REQUEST.2091 DATE Rate Lock Request - Rate Lock Request Lock Expires Date (Most Recent) 8.1
Virtual LOCKRATE.REQUEST.2149 DATE Rate Lock Request - Rate Lock Buy Side Lock Date (Most Recent) 8.1
Virtual LOCKRATE.REQUEST.2151 DATE Rate Lock Request - Rate Lock Buy Side Lock Expires Date (Most Recent) 8.1
Virtual LOCKRATE.REQUEST.2206 DATE Rate Lock Request - Rate Lock Sell Side Target Delivery Date (Most Recent) 8.1
Virtual LOCKRATE.REQUEST.2220 DATE Rate Lock Request - Rate Lock Sell Side Lock Date (Most Recent) 8.1
Virtual LOCKRATE.REQUEST.2222 DATE Rate Lock Request - Rate Lock Sell Side Lock Expires Date (Most Recent) 8.1
Virtual LOCKRATE.REQUEST.2291 DATE Rate Lock Request - Rate Lock Sell Side Date Locked with Investor (Most Recent) 8.1
Virtual LOCKRATE.REQUEST.2297 DATE Rate Lock Request - Rate Lock Sell Side Investor Delivery Date (Most Recent) 8.1
Virtual LOCKRATE.REQUEST.2592 STRING Rate Lock Request - Rate Lock Request Fulfilled Date Time (Most Recent) 8.1
Virtual LOCKRATE.REQUEST.2966 DATE Rate Lock Request - Lock Request Est Closing Date (Most Recent) 8.1
Virtual LOCKRATE.REQUEST.3254 DATE Rate Lock Request - Rate Lock Request Last Rate Set Date (Most Recent) 8.1
Virtual LOCKRATE.REQUEST.3256 DATE Rate Lock Request - Rate Lock Buy Side Last Rate Set Date (Most Recent) 8.1
Virtual LOCKRATE.REQUEST.3257 DATE Rate Lock Request - Rate Lock Sell Side Last Rate Set Date (Most Recent) 8.1
Virtual LOCKRATE.REQUEST.3358 DATE Rate Lock Request - Rate Lock Buy Side Lock Expires Date (Most Recent) 8.1
Virtual LOCKRATE.REQUEST.3359 DATE Rate Lock Request - Rate Lock Sell Side Lock Expires Date (Most Recent) 8.1
Virtual LOCKRATE.REQUEST.3361 DATE Rate Lock Request - Rate Lock Request Extended Lock Expires Date (Most Recent) 8.1
Virtual LOCKRATE.REQUEST.3364 DATE Rate Lock Request - Rate Lock Buy Side Extended Lock Expires Date (Most Recent) 8.1
Virtual LOCKRATE.REQUEST.3367 DATE Rate Lock Request - Rate Lock Sell Side Extended Lock Expires Date (Most Recent) 8.1
Virtual LOCKRATE.REQUEST.3369 DATE Rate Lock Request - Rate Lock Request Original Lock Expires Date (Most Recent) 8.1
Virtual LOCKRATE.REQUEST.3372 DATE Rate Lock Request - Rate Lock Buy Side Corporate Concession Approval Date (Most Recent) 8.1
Virtual LOCKRATE.REQUEST.3376 DATE Rate Lock Request - Rate Lock Buy Side Branch Concession Approval Date (Most Recent) 8.1
Virtual LOCKRATE.REQUEST.3663 DATE Rate Lock Request - Rate Lock Comparison Last Rate Set Date (Most Recent) 9.1
Virtual LOCKRATE.REQUEST.3664 DATE Rate Lock Request - Rate Lock Comparison Lock Date (Most Recent) 9.1
Virtual LOCKRATE.REQUEST.3666 DATE Rate Lock Request - Rate Lock Comparison Lock Expires Date (Most Recent) 9.1
Virtual LOCKRATE.REQUEST.3909 DATE Rate Lock Request - Rate Lock BuySide Commitment Date (Most Recent) 15.1
Virtual LOCKRATE.REQUEST.3912 DATE Rate Lock Request - Rate Lock BuySide Expiration Date (Most Recent) 15.1
Virtual LOCKRATE.REQUEST.3913 DATE Rate Lock Request - Rate Lock BuySide Delivery Expiration Date (Most Recent) 15.1
Virtual LOCKRATE.REQUEST.4016 DATE Rate Lock Request - Rate Lock Sell Side Commitment Date (Most Recent) 15.1
Virtual LOCKRATE.REQUEST.4069 DATE Rate Lock Request - Rate Lock Request ONRP Lock Date (Most Recent) 15.2
Virtual LOCKRATE.REQUEST.4070 DATE Rate Lock Request - Rate Lock Buy Side ONRP Lock Date (Most Recent) 15.2
Virtual LOCKRATE.REQUEST.763 DATE Rate Lock Request - Trans Details Est Closing Date (Most Recent) 8.1
Virtual LOCKRATE1.2089 DATE Rate Lock - Rate Lock Request Lock Date (Previous 1)
Virtual LOCKRATE1.2091 DATE Rate Lock - Rate Lock Request Lock Expires Date (Previous 1)
Virtual LOCKRATE1.2149 DATE Rate Lock - Rate Lock Buy Side Lock Date (Previous 1)
Virtual LOCKRATE1.2151 DATE Rate Lock - Rate Lock Buy Side Lock Expires Date (Previous 1)
Virtual LOCKRATE1.2206 DATE Rate Lock - Rate Lock Sell Side Target Delivery Date (Previous 1) 8.1
Virtual LOCKRATE1.2220 DATE Rate Lock - Rate Lock Sell Side Lock Date (Previous 1)
Virtual LOCKRATE1.2222 DATE Rate Lock - Rate Lock Sell Side Lock Expires Date (Previous 1)
Virtual LOCKRATE1.2291 DATE Rate Lock - Rate Lock Sell Side Date Locked with Investor (Previous 1)
Virtual LOCKRATE1.2297 DATE Rate Lock - Rate Lock Sell Side Investor Delivery Date (Previous 1) 8.1
Virtual LOCKRATE1.2592 STRING Rate Lock - Rate Lock Request Fulfilled Date Time (Previous 1)
Virtual LOCKRATE1.2966 DATE Rate Lock - Lock Request Est Closing Date (Previous 1)
Virtual LOCKRATE1.3254 DATE Rate Lock - Rate Lock Request Last Rate Set Date (Previous 1)
Virtual LOCKRATE1.3256 DATE Rate Lock - Rate Lock Buy Side Last Rate Set Date (Previous 1)
Virtual LOCKRATE1.3257 DATE Rate Lock - Rate Lock Sell Side Last Rate Set Date (Previous 1)
Virtual LOCKRATE1.3358 DATE Rate Lock - Rate Lock Buy Side Lock Expires Date (Previous 1) 8.1
Virtual LOCKRATE1.3359 DATE Rate Lock - Rate Lock Sell Side Lock Expires Date (Previous 1) 8.1
Virtual LOCKRATE1.3361 DATE Rate Lock - Rate Lock Request Extended Lock Expires Date (Previous 1) 8.1
Virtual LOCKRATE1.3364 DATE Rate Lock - Rate Lock Buy Side Extended Lock Expires Date (Previous 1) 8.1
Virtual LOCKRATE1.3367 DATE Rate Lock - Rate Lock Sell Side Extended Lock Expires Date (Previous 1) 8.1
Virtual LOCKRATE1.3369 DATE Rate Lock - Rate Lock Request Original Lock Expires Date (Previous 1) 8.1
Virtual LOCKRATE1.3372 DATE Rate Lock - Rate Lock Buy Side Corporate Concession Approval Date (Previous 1)
Virtual LOCKRATE1.3376 DATE Rate Lock - Rate Lock Buy Side Branch Concession Approval Date (Previous 1)
Virtual LOCKRATE1.3663 DATE Rate Lock - Rate Lock Comparison Last Rate Set Date (Previous 1) 9.1
Virtual LOCKRATE1.3664 DATE Rate Lock - Rate Lock Comparison Lock Date (Previous 1) 9.1
Virtual LOCKRATE1.3666 DATE Rate Lock - Rate Lock Comparison Lock Expires Date (Previous 1) 9.1
Virtual LOCKRATE1.3909 DATE Rate Lock - Rate Lock BuySide Commitment Date (Previous 1) 15.1
Virtual LOCKRATE1.3912 DATE Rate Lock - Rate Lock BuySide Expiration Date (Previous 1) 15.1
Virtual LOCKRATE1.3913 DATE Rate Lock - Rate Lock BuySide Delivery Expiration Date (Previous 1) 15.1
Virtual LOCKRATE1.4016 DATE Rate Lock - Rate Lock Sell Side Commitment Date (Previous 1) 15.1
Virtual LOCKRATE1.4069 DATE Rate Lock - Rate Lock Request ONRP Lock Date (Previous 1) 15.2
Virtual LOCKRATE1.4070 DATE Rate Lock - Rate Lock Buy Side ONRP Lock Date (Previous 1) 15.2
Virtual LOCKRATE1.763 DATE Rate Lock - Trans Details Est Closing Date (Previous 1)
Virtual LOCKRATE1.DENIED.2089 DATE Rate Lock Denial - Rate Lock Request Lock Date (Previous 1) 8.1
Virtual LOCKRATE1.DENIED.2091 DATE Rate Lock Denial - Rate Lock Request Lock Expires Date (Previous 1) 8.1
Virtual LOCKRATE1.DENIED.2149 DATE Rate Lock Denial - Rate Lock Buy Side Lock Date (Previous 1) 8.1
Virtual LOCKRATE1.DENIED.2151 DATE Rate Lock Denial - Rate Lock Buy Side Lock Expires Date (Previous 1) 8.1
Virtual LOCKRATE1.DENIED.2206 DATE Rate Lock Denial - Rate Lock Sell Side Target Delivery Date (Previous 1) 8.1
Virtual LOCKRATE1.DENIED.2220 DATE Rate Lock Denial - Rate Lock Sell Side Lock Date (Previous 1) 8.1
Virtual LOCKRATE1.DENIED.2222 DATE Rate Lock Denial - Rate Lock Sell Side Lock Expires Date (Previous 1) 8.1
Virtual LOCKRATE1.DENIED.2291 DATE Rate Lock Denial - Rate Lock Sell Side Date Locked with Investor (Previous 1) 8.1
Virtual LOCKRATE1.DENIED.2297 DATE Rate Lock Denial - Rate Lock Sell Side Investor Delivery Date (Previous 1) 8.1
Virtual LOCKRATE1.DENIED.2592 STRING Rate Lock Denial - Rate Lock Request Fulfilled Date Time (Previous 1) 8.1
Virtual LOCKRATE1.DENIED.2966 DATE Rate Lock Denial - Lock Request Est Closing Date (Previous 1) 8.1
Virtual LOCKRATE1.DENIED.3254 DATE Rate Lock Denial - Rate Lock Request Last Rate Set Date (Previous 1) 8.1
Virtual LOCKRATE1.DENIED.3256 DATE Rate Lock Denial - Rate Lock Buy Side Last Rate Set Date (Previous 1) 8.1
Virtual LOCKRATE1.DENIED.3257 DATE Rate Lock Denial - Rate Lock Sell Side Last Rate Set Date (Previous 1) 8.1
Virtual LOCKRATE1.DENIED.3358 DATE Rate Lock Denial - Rate Lock Buy Side Lock Expires Date (Previous 1) 8.1
Virtual LOCKRATE1.DENIED.3359 DATE Rate Lock Denial - Rate Lock Sell Side Lock Expires Date (Previous 1) 8.1
Virtual LOCKRATE1.DENIED.3361 DATE Rate Lock Denial - Rate Lock Request Extended Lock Expires Date (Previous 1) 8.1
Virtual LOCKRATE1.DENIED.3364 DATE Rate Lock Denial - Rate Lock Buy Side Extended Lock Expires Date (Previous 1) 8.1
Virtual LOCKRATE1.DENIED.3367 DATE Rate Lock Denial - Rate Lock Sell Side Extended Lock Expires Date (Previous 1) 8.1
Virtual LOCKRATE1.DENIED.3369 DATE Rate Lock Denial - Rate Lock Request Original Lock Expires Date (Previous 1) 8.1
Virtual LOCKRATE1.DENIED.3372 DATE Rate Lock Denial - Rate Lock Buy Side Corporate Concession Approval Date (Previous 1) 8.1
Virtual LOCKRATE1.DENIED.3376 DATE Rate Lock Denial - Rate Lock Buy Side Branch Concession Approval Date (Previous 1) 8.1
Virtual LOCKRATE1.DENIED.3663 DATE Rate Lock Denial - Rate Lock Comparison Last Rate Set Date (Previous 1) 9.1
Virtual LOCKRATE1.DENIED.3664 DATE Rate Lock Denial - Rate Lock Comparison Lock Date (Previous 1) 9.1
Virtual LOCKRATE1.DENIED.3666 DATE Rate Lock Denial - Rate Lock Comparison Lock Expires Date (Previous 1) 9.1
Virtual LOCKRATE1.DENIED.3909 DATE Rate Lock Denial - Rate Lock BuySide Commitment Date (Previous 1) 15.1
Virtual LOCKRATE1.DENIED.3912 DATE Rate Lock Denial - Rate Lock BuySide Expiration Date (Previous 1) 15.1
Virtual LOCKRATE1.DENIED.3913 DATE Rate Lock Denial - Rate Lock BuySide Delivery Expiration Date (Previous 1) 15.1
Virtual LOCKRATE1.DENIED.4016 DATE Rate Lock Denial - Rate Lock Sell Side Commitment Date (Previous 1) 15.1
Virtual LOCKRATE1.DENIED.4069 DATE Rate Lock Denial - Rate Lock Request ONRP Lock Date (Previous 1) 15.2
Virtual LOCKRATE1.DENIED.4070 DATE Rate Lock Denial - Rate Lock Buy Side ONRP Lock Date (Previous 1) 15.2
Virtual LOCKRATE1.DENIED.763 DATE Rate Lock Denial - Trans Details Est Closing Date (Previous 1) 8.1
Virtual LOCKRATE1.FULFILLEDDATETIME DATETIME Rate Lock - Fulfilled Date Time (Previous 1)
Virtual LOCKRATE1.REQUEST.2089 DATE Rate Lock Request - Rate Lock Request Lock Date (Previous 1) 8.1
Virtual LOCKRATE1.REQUEST.2091 DATE Rate Lock Request - Rate Lock Request Lock Expires Date (Previous 1) 8.1
Virtual LOCKRATE1.REQUEST.2149 DATE Rate Lock Request - Rate Lock Buy Side Lock Date (Previous 1) 8.1
Virtual LOCKRATE1.REQUEST.2151 DATE Rate Lock Request - Rate Lock Buy Side Lock Expires Date (Previous 1) 8.1
Virtual LOCKRATE1.REQUEST.2206 DATE Rate Lock Request - Rate Lock Sell Side Target Delivery Date (Previous 1) 8.1
Virtual LOCKRATE1.REQUEST.2220 DATE Rate Lock Request - Rate Lock Sell Side Lock Date (Previous 1) 8.1
Virtual LOCKRATE1.REQUEST.2222 DATE Rate Lock Request - Rate Lock Sell Side Lock Expires Date (Previous 1) 8.1
Virtual LOCKRATE1.REQUEST.2291 DATE Rate Lock Request - Rate Lock Sell Side Date Locked with Investor (Previous 1) 8.1
Virtual LOCKRATE1.REQUEST.2297 DATE Rate Lock Request - Rate Lock Sell Side Investor Delivery Date (Previous 1) 8.1
Virtual LOCKRATE1.REQUEST.2592 STRING Rate Lock Request - Rate Lock Request Fulfilled Date Time (Previous 1) 8.1
Virtual LOCKRATE1.REQUEST.2966 DATE Rate Lock Request - Lock Request Est Closing Date (Previous 1) 8.1
Virtual LOCKRATE1.REQUEST.3254 DATE Rate Lock Request - Rate Lock Request Last Rate Set Date (Previous 1) 8.1
Virtual LOCKRATE1.REQUEST.3256 DATE Rate Lock Request - Rate Lock Buy Side Last Rate Set Date (Previous 1) 8.1
Virtual LOCKRATE1.REQUEST.3257 DATE Rate Lock Request - Rate Lock Sell Side Last Rate Set Date (Previous 1) 8.1
Virtual LOCKRATE1.REQUEST.3358 DATE Rate Lock Request - Rate Lock Buy Side Lock Expires Date (Previous 1) 8.1
Virtual LOCKRATE1.REQUEST.3359 DATE Rate Lock Request - Rate Lock Sell Side Lock Expires Date (Previous 1) 8.1